UltraLionFr

error mysql

Oct 18th, 2021
759
Never
Not a member of Pastebin yet? Sign Up, it unlocks many cool features!
  1. 2021-10-18T17:23:03.508485Z 0 [Warning] Insecure configuration for --secure-file-priv: Current value does not restrict location of generated files. Consider setting it to a valid, non-empty path.
  2. 2021-10-18T17:23:03.508951Z 0 [Note] C:\laragon\bin\mysql\mysql-5.7.33-winx64\bin\mysqld (mysqld 5.7.33) starting as process 18240 ...
  3. 2021-10-18T17:23:03.520330Z 0 [Note] InnoDB: Mutexes and rw_locks use Windows interlocked functions
  4. 2021-10-18T17:23:03.521193Z 0 [Note] InnoDB: Uses event mutexes
  5. 2021-10-18T17:23:03.521739Z 0 [Note] InnoDB: _mm_lfence() and _mm_sfence() are used for memory barrier
  6. 2021-10-18T17:23:03.522645Z 0 [Note] InnoDB: Compressed tables use zlib 1.2.11
  7. 2021-10-18T17:23:03.523515Z 0 [Note] InnoDB: Number of pools: 1
  8. 2021-10-18T17:23:03.524167Z 0 [Note] InnoDB: Not using CPU crc32 instructions
  9. 2021-10-18T17:23:03.526179Z 0 [Note] InnoDB: Initializing buffer pool, total size = 128M, instances = 1, chunk size = 128M
  10. 2021-10-18T17:23:03.530072Z 0 [Note] InnoDB: Completed initialization of buffer pool
  11. 2021-10-18T17:23:03.553657Z 0 [Note] InnoDB: Highest supported file format is Barracuda.
  12. 2021-10-18T17:23:03.582762Z 0 [Note] InnoDB: Creating shared tablespace for temporary tables
  13. 2021-10-18T17:23:03.583381Z 0 [Note] InnoDB: Setting file '.\ibtmp1' size to 12 MB. Physically writing the file full; Please wait ...
  14. 2021-10-18T17:23:03.589748Z 0 [Note] InnoDB: File '.\ibtmp1' size is now 12 MB.
  15. 2021-10-18T17:23:03.594688Z 0 [Note] InnoDB: 96 redo rollback segment(s) found. 96 redo rollback segment(s) are active.
  16. 2021-10-18T17:23:03.595175Z 0 [Note] InnoDB: 32 non-redo rollback segment(s) are active.
  17. 2021-10-18T17:23:03.595686Z 0 [Note] InnoDB: Waiting for purge to start
  18. 2021-10-18T17:23:03.657140Z 0 [Note] InnoDB: 5.7.33 started; log sequence number 2746831
  19. 2021-10-18T17:23:03.657745Z 0 [Note] InnoDB: Loading buffer pool(s) from C:\laragon\data\mysql\ib_buffer_pool
  20. 2021-10-18T17:23:03.657785Z 0 [Note] Plugin 'FEDERATED' is disabled.
  21. 2021-10-18T17:23:03.663653Z 0 [Note] Found ca.pem, server-cert.pem and server-key.pem in data directory. Trying to enable SSL support using them.
  22. 2021-10-18T17:23:03.664156Z 0 [Note] Skipping generation of SSL certificates as certificate files are present in data directory.
  23. 2021-10-18T17:23:03.665534Z 0 [Warning] CA certificate ca.pem is self signed.
  24. 2021-10-18T17:23:03.665955Z 0 [Note] Skipping generation of RSA key pair as key files are present in data directory.
  25. 2021-10-18T17:23:03.666498Z 0 [Note] Server hostname (bind-address): '*'; port: 3306
  26. 2021-10-18T17:23:03.666945Z 0 [Note] IPv6 is available.
  27. 2021-10-18T17:23:03.667176Z 0 [Note]   - '::' resolves to '::';
  28. 2021-10-18T17:23:03.667490Z 0 [Note] Server socket created on IP: '::'.
  29. 2021-10-18T17:23:03.667785Z 0 [ERROR] Can't start server: Bind on TCP/IP port: No such file or directory
  30. 2021-10-18T17:23:03.668149Z 0 [ERROR] Do you already have another mysqld server running on port: 3306 ?
  31. 2021-10-18T17:23:03.668509Z 0 [ERROR] Aborting
  32.  
  33. 2021-10-18T17:23:03.668707Z 0 [Note] Binlog end
  34. 2021-10-18T17:23:03.668924Z 0 [Note] Shutting down plugin 'ngram'
  35. 2021-10-18T17:23:03.669078Z 0 [Note] InnoDB: Buffer pool(s) load completed at 211018 19:23:03
  36. 2021-10-18T17:23:03.669173Z 0 [Note] Shutting down plugin 'partition'
  37. 2021-10-18T17:23:03.669688Z 0 [Note] Shutting down plugin 'BLACKHOLE'
  38. 2021-10-18T17:23:03.669965Z 0 [Note] Shutting down plugin 'ARCHIVE'
  39. 2021-10-18T17:23:03.670310Z 0 [Note] Shutting down plugin 'PERFORMANCE_SCHEMA'
  40. 2021-10-18T17:23:03.670646Z 0 [Note] Shutting down plugin 'MRG_MYISAM'
  41. 2021-10-18T17:23:03.670939Z 0 [Note] Shutting down plugin 'MyISAM'
  42. 2021-10-18T17:23:03.671198Z 0 [Note] Shutting down plugin 'INNODB_SYS_VIRTUAL'
  43. 2021-10-18T17:23:03.671481Z 0 [Note] Shutting down plugin 'INNODB_SYS_DATAFILES'
  44. 2021-10-18T17:23:03.671766Z 0 [Note] Shutting down plugin 'INNODB_SYS_TABLESPACES'
  45. 2021-10-18T17:23:03.672059Z 0 [Note] Shutting down plugin 'INNODB_SYS_FOREIGN_COLS'
  46. 2021-10-18T17:23:03.672380Z 0 [Note] Shutting down plugin 'INNODB_SYS_FOREIGN'
  47. 2021-10-18T17:23:03.672659Z 0 [Note] Shutting down plugin 'INNODB_SYS_FIELDS'
  48. 2021-10-18T17:23:03.673000Z 0 [Note] Shutting down plugin 'INNODB_SYS_COLUMNS'
  49. 2021-10-18T17:23:03.673295Z 0 [Note] Shutting down plugin 'INNODB_SYS_INDEXES'
  50. 2021-10-18T17:23:03.673580Z 0 [Note] Shutting down plugin 'INNODB_SYS_TABLESTATS'
  51. 2021-10-18T17:23:03.673886Z 0 [Note] Shutting down plugin 'INNODB_SYS_TABLES'
  52. 2021-10-18T17:23:03.674159Z 0 [Note] Shutting down plugin 'INNODB_FT_INDEX_TABLE'
  53. 2021-10-18T17:23:03.674446Z 0 [Note] Shutting down plugin 'INNODB_FT_INDEX_CACHE'
  54. 2021-10-18T17:23:03.674730Z 0 [Note] Shutting down plugin 'INNODB_FT_CONFIG'
  55. 2021-10-18T17:23:03.675003Z 0 [Note] Shutting down plugin 'INNODB_FT_BEING_DELETED'
  56. 2021-10-18T17:23:03.675288Z 0 [Note] Shutting down plugin 'INNODB_FT_DELETED'
  57. 2021-10-18T17:23:03.675562Z 0 [Note] Shutting down plugin 'INNODB_FT_DEFAULT_STOPWORD'
  58. 2021-10-18T17:23:03.675904Z 0 [Note] Shutting down plugin 'INNODB_METRICS'
  59. 2021-10-18T17:23:03.676184Z 0 [Note] Shutting down plugin 'INNODB_TEMP_TABLE_INFO'
  60. 2021-10-18T17:23:03.676488Z 0 [Note] Shutting down plugin 'INNODB_BUFFER_POOL_STATS'
  61. 2021-10-18T17:23:03.676780Z 0 [Note] Shutting down plugin 'INNODB_BUFFER_PAGE_LRU'
  62. 2021-10-18T17:23:03.677070Z 0 [Note] Shutting down plugin 'INNODB_BUFFER_PAGE'
  63. 2021-10-18T17:23:03.677346Z 0 [Note] Shutting down plugin 'INNODB_CMP_PER_INDEX_RESET'
  64. 2021-10-18T17:23:03.677645Z 0 [Note] Shutting down plugin 'INNODB_CMP_PER_INDEX'
  65. 2021-10-18T17:23:03.677929Z 0 [Note] Shutting down plugin 'INNODB_CMPMEM_RESET'
  66. 2021-10-18T17:23:03.678204Z 0 [Note] Shutting down plugin 'INNODB_CMPMEM'
  67. 2021-10-18T17:23:03.678512Z 0 [Note] Shutting down plugin 'INNODB_CMP_RESET'
  68. 2021-10-18T17:23:03.678804Z 0 [Note] Shutting down plugin 'INNODB_CMP'
  69. 2021-10-18T17:23:03.679070Z 0 [Note] Shutting down plugin 'INNODB_LOCK_WAITS'
  70. 2021-10-18T17:23:03.679347Z 0 [Note] Shutting down plugin 'INNODB_LOCKS'
  71. 2021-10-18T17:23:03.679605Z 0 [Note] Shutting down plugin 'INNODB_TRX'
  72. 2021-10-18T17:23:03.679862Z 0 [Note] Shutting down plugin 'InnoDB'
  73. 2021-10-18T17:23:03.680120Z 0 [Note] InnoDB: FTS optimize thread exiting.
  74. 2021-10-18T17:23:03.680433Z 0 [Note] InnoDB: Starting shutdown...
  75. 2021-10-18T17:23:03.780957Z 0 [Note] InnoDB: Dumping buffer pool(s) to C:\laragon\data\mysql\ib_buffer_pool
  76. 2021-10-18T17:23:03.782114Z 0 [Note] InnoDB: Buffer pool(s) dump completed at 211018 19:23:03
  77. 2021-10-18T17:23:05.194908Z 0 [Note] InnoDB: Shutdown completed; log sequence number 2746850
  78. 2021-10-18T17:23:05.195558Z 0 [Note] InnoDB: Removed temporary tablespace data file: "ibtmp1"
  79. 2021-10-18T17:23:05.195903Z 0 [Note] Shutting down plugin 'MEMORY'
  80. 2021-10-18T17:23:05.196152Z 0 [Note] Shutting down plugin 'CSV'
  81. 2021-10-18T17:23:05.196395Z 0 [Note] Shutting down plugin 'sha256_password'
  82. 2021-10-18T17:23:05.196662Z 0 [Note] Shutting down plugin 'mysql_native_password'
  83. 2021-10-18T17:23:05.197041Z 0 [Note] Shutting down plugin 'binlog'
  84. 2021-10-18T17:23:05.198336Z 0 [Note] C:\laragon\bin\mysql\mysql-5.7.33-winx64\bin\mysqld: Shutdown complete
  85.  
  86. 2021-10-18T17:23:13.368995Z 0 [Warning] Insecure configuration for --secure-file-priv: Current value does not restrict location of generated files. Consider setting it to a valid, non-empty path.
  87. 2021-10-18T17:23:13.369326Z 0 [Note] C:\laragon\bin\mysql\mysql-5.7.33-winx64\bin\mysqld (mysqld 5.7.33) starting as process 15640 ...
  88. 2021-10-18T17:23:13.379370Z 0 [Note] InnoDB: Mutexes and rw_locks use Windows interlocked functions
  89. 2021-10-18T17:23:13.379940Z 0 [Note] InnoDB: Uses event mutexes
  90. 2021-10-18T17:23:13.380201Z 0 [Note] InnoDB: _mm_lfence() and _mm_sfence() are used for memory barrier
  91. 2021-10-18T17:23:13.380611Z 0 [Note] InnoDB: Compressed tables use zlib 1.2.11
  92. 2021-10-18T17:23:13.381099Z 0 [Note] InnoDB: Number of pools: 1
  93. 2021-10-18T17:23:13.381424Z 0 [Note] InnoDB: Not using CPU crc32 instructions
  94. 2021-10-18T17:23:13.383289Z 0 [Note] InnoDB: Initializing buffer pool, total size = 128M, instances = 1, chunk size = 128M
  95. 2021-10-18T17:23:13.387876Z 0 [Note] InnoDB: Completed initialization of buffer pool
  96. 2021-10-18T17:23:13.413651Z 0 [Note] InnoDB: Highest supported file format is Barracuda.
  97. 2021-10-18T17:23:13.443405Z 0 [Note] InnoDB: Creating shared tablespace for temporary tables
  98. 2021-10-18T17:23:13.444017Z 0 [Note] InnoDB: Setting file '.\ibtmp1' size to 12 MB. Physically writing the file full; Please wait ...
  99. 2021-10-18T17:23:13.450139Z 0 [Note] InnoDB: File '.\ibtmp1' size is now 12 MB.
  100. 2021-10-18T17:23:13.455979Z 0 [Note] InnoDB: 96 redo rollback segment(s) found. 96 redo rollback segment(s) are active.
  101. 2021-10-18T17:23:13.456428Z 0 [Note] InnoDB: 32 non-redo rollback segment(s) are active.
  102. 2021-10-18T17:23:13.456941Z 0 [Note] InnoDB: Waiting for purge to start
  103. 2021-10-18T17:23:13.516404Z 0 [Note] InnoDB: 5.7.33 started; log sequence number 2746850
  104. 2021-10-18T17:23:13.517164Z 0 [Note] InnoDB: Loading buffer pool(s) from C:\laragon\data\mysql\ib_buffer_pool
  105. 2021-10-18T17:23:13.517168Z 0 [Note] Plugin 'FEDERATED' is disabled.
  106. 2021-10-18T17:23:13.523399Z 0 [Note] Found ca.pem, server-cert.pem and server-key.pem in data directory. Trying to enable SSL support using them.
  107. 2021-10-18T17:23:13.523945Z 0 [Note] Skipping generation of SSL certificates as certificate files are present in data directory.
  108. 2021-10-18T17:23:13.525817Z 0 [Warning] CA certificate ca.pem is self signed.
  109. 2021-10-18T17:23:13.526233Z 0 [Note] Skipping generation of RSA key pair as key files are present in data directory.
  110. 2021-10-18T17:23:13.526667Z 0 [Note] InnoDB: Buffer pool(s) load completed at 211018 19:23:13
  111. 2021-10-18T17:23:13.526795Z 0 [Note] Server hostname (bind-address): '*'; port: 3306
  112. 2021-10-18T17:23:13.527557Z 0 [Note] IPv6 is available.
  113. 2021-10-18T17:23:13.527806Z 0 [Note]   - '::' resolves to '::';
  114. 2021-10-18T17:23:13.528084Z 0 [Note] Server socket created on IP: '::'.
  115. 2021-10-18T17:23:13.528381Z 0 [ERROR] Can't start server: Bind on TCP/IP port: No such file or directory
  116. 2021-10-18T17:23:13.528749Z 0 [ERROR] Do you already have another mysqld server running on port: 3306 ?
  117. 2021-10-18T17:23:13.529106Z 0 [ERROR] Aborting
  118.  
  119. 2021-10-18T17:23:13.529315Z 0 [Note] Binlog end
  120. 2021-10-18T17:23:13.529528Z 0 [Note] Shutting down plugin 'ngram'
  121. 2021-10-18T17:23:13.529787Z 0 [Note] Shutting down plugin 'partition'
  122. 2021-10-18T17:23:13.530037Z 0 [Note] Shutting down plugin 'BLACKHOLE'
  123. 2021-10-18T17:23:13.530288Z 0 [Note] Shutting down plugin 'ARCHIVE'
  124. 2021-10-18T17:23:13.530526Z 0 [Note] Shutting down plugin 'PERFORMANCE_SCHEMA'
  125. 2021-10-18T17:23:13.530889Z 0 [Note] Shutting down plugin 'MRG_MYISAM'
  126. 2021-10-18T17:23:13.531212Z 0 [Note] Shutting down plugin 'MyISAM'
  127. 2021-10-18T17:23:13.531463Z 0 [Note] Shutting down plugin 'INNODB_SYS_VIRTUAL'
  128. 2021-10-18T17:23:13.531762Z 0 [Note] Shutting down plugin 'INNODB_SYS_DATAFILES'
  129. 2021-10-18T17:23:13.532092Z 0 [Note] Shutting down plugin 'INNODB_SYS_TABLESPACES'
  130. 2021-10-18T17:23:13.532400Z 0 [Note] Shutting down plugin 'INNODB_SYS_FOREIGN_COLS'
  131. 2021-10-18T17:23:13.532691Z 0 [Note] Shutting down plugin 'INNODB_SYS_FOREIGN'
  132. 2021-10-18T17:23:13.532965Z 0 [Note] Shutting down plugin 'INNODB_SYS_FIELDS'
  133. 2021-10-18T17:23:13.533238Z 0 [Note] Shutting down plugin 'INNODB_SYS_COLUMNS'
  134. 2021-10-18T17:23:13.533509Z 0 [Note] Shutting down plugin 'INNODB_SYS_INDEXES'
  135. 2021-10-18T17:23:13.533785Z 0 [Note] Shutting down plugin 'INNODB_SYS_TABLESTATS'
  136. 2021-10-18T17:23:13.534064Z 0 [Note] Shutting down plugin 'INNODB_SYS_TABLES'
  137. 2021-10-18T17:23:13.534336Z 0 [Note] Shutting down plugin 'INNODB_FT_INDEX_TABLE'
  138. 2021-10-18T17:23:13.534617Z 0 [Note] Shutting down plugin 'INNODB_FT_INDEX_CACHE'
  139. 2021-10-18T17:23:13.534904Z 0 [Note] Shutting down plugin 'INNODB_FT_CONFIG'
  140. 2021-10-18T17:23:13.535174Z 0 [Note] Shutting down plugin 'INNODB_FT_BEING_DELETED'
  141. 2021-10-18T17:23:13.535460Z 0 [Note] Shutting down plugin 'INNODB_FT_DELETED'
  142. 2021-10-18T17:23:13.535735Z 0 [Note] Shutting down plugin 'INNODB_FT_DEFAULT_STOPWORD'
  143. 2021-10-18T17:23:13.536029Z 0 [Note] Shutting down plugin 'INNODB_METRICS'
  144. 2021-10-18T17:23:13.536297Z 0 [Note] Shutting down plugin 'INNODB_TEMP_TABLE_INFO'
  145. 2021-10-18T17:23:13.536585Z 0 [Note] Shutting down plugin 'INNODB_BUFFER_POOL_STATS'
  146. 2021-10-18T17:23:13.536947Z 0 [Note] Shutting down plugin 'INNODB_BUFFER_PAGE_LRU'
  147. 2021-10-18T17:23:13.537247Z 0 [Note] Shutting down plugin 'INNODB_BUFFER_PAGE'
  148. 2021-10-18T17:23:13.537521Z 0 [Note] Shutting down plugin 'INNODB_CMP_PER_INDEX_RESET'
  149. 2021-10-18T17:23:13.537820Z 0 [Note] Shutting down plugin 'INNODB_CMP_PER_INDEX'
  150. 2021-10-18T17:23:13.538098Z 0 [Note] Shutting down plugin 'INNODB_CMPMEM_RESET'
  151. 2021-10-18T17:23:13.538382Z 0 [Note] Shutting down plugin 'INNODB_CMPMEM'
  152. 2021-10-18T17:23:13.538673Z 0 [Note] Shutting down plugin 'INNODB_CMP_RESET'
  153. 2021-10-18T17:23:13.538965Z 0 [Note] Shutting down plugin 'INNODB_CMP'
  154. 2021-10-18T17:23:13.539229Z 0 [Note] Shutting down plugin 'INNODB_LOCK_WAITS'
  155. 2021-10-18T17:23:13.539503Z 0 [Note] Shutting down plugin 'INNODB_LOCKS'
  156. 2021-10-18T17:23:13.539766Z 0 [Note] Shutting down plugin 'INNODB_TRX'
  157. 2021-10-18T17:23:13.540019Z 0 [Note] Shutting down plugin 'InnoDB'
  158. 2021-10-18T17:23:13.540289Z 0 [Note] InnoDB: FTS optimize thread exiting.
  159. 2021-10-18T17:23:13.540612Z 0 [Note] InnoDB: Starting shutdown...
  160. 2021-10-18T17:23:13.655602Z 0 [Note] InnoDB: Dumping buffer pool(s) to C:\laragon\data\mysql\ib_buffer_pool
  161. 2021-10-18T17:23:13.656802Z 0 [Note] InnoDB: Buffer pool(s) dump completed at 211018 19:23:13
  162. 2021-10-18T17:23:14.847670Z 0 [Note] InnoDB: Shutdown completed; log sequence number 2746869
  163. 2021-10-18T17:23:14.848302Z 0 [Note] InnoDB: Removed temporary tablespace data file: "ibtmp1"
  164. 2021-10-18T17:23:14.848638Z 0 [Note] Shutting down plugin 'MEMORY'
  165. 2021-10-18T17:23:14.848921Z 0 [Note] Shutting down plugin 'CSV'
  166. 2021-10-18T17:23:14.849275Z 0 [Note] Shutting down plugin 'sha256_password'
  167. 2021-10-18T17:23:14.849562Z 0 [Note] Shutting down plugin 'mysql_native_password'
  168. 2021-10-18T17:23:14.849980Z 0 [Note] Shutting down plugin 'binlog'
  169. 2021-10-18T17:23:14.851294Z 0 [Note] C:\laragon\bin\mysql\mysql-5.7.33-winx64\bin\mysqld: Shutdown complete
  170.  
  171. 2021-10-18T17:24:37.743896Z 0 [Warning] Insecure configuration for --secure-file-priv: Current value does not restrict location of generated files. Consider setting it to a valid, non-empty path.
  172. 2021-10-18T17:24:37.744272Z 0 [Note] C:\laragon\bin\mysql\mysql-5.7.33-winx64\bin\mysqld (mysqld 5.7.33) starting as process 19908 ...
  173. 2021-10-18T17:24:37.754738Z 0 [Note] InnoDB: Mutexes and rw_locks use Windows interlocked functions
  174. 2021-10-18T17:24:37.755166Z 0 [Note] InnoDB: Uses event mutexes
  175. 2021-10-18T17:24:37.755414Z 0 [Note] InnoDB: _mm_lfence() and _mm_sfence() are used for memory barrier
  176. 2021-10-18T17:24:37.755808Z 0 [Note] InnoDB: Compressed tables use zlib 1.2.11
  177. 2021-10-18T17:24:37.756324Z 0 [Note] InnoDB: Number of pools: 1
  178. 2021-10-18T17:24:37.756665Z 0 [Note] InnoDB: Not using CPU crc32 instructions
  179. 2021-10-18T17:24:37.758565Z 0 [Note] InnoDB: Initializing buffer pool, total size = 128M, instances = 1, chunk size = 128M
  180. 2021-10-18T17:24:37.762997Z 0 [Note] InnoDB: Completed initialization of buffer pool
  181. 2021-10-18T17:24:37.794685Z 0 [Note] InnoDB: Highest supported file format is Barracuda.
  182. 2021-10-18T17:24:37.824155Z 0 [Note] InnoDB: Creating shared tablespace for temporary tables
  183. 2021-10-18T17:24:37.824767Z 0 [Note] InnoDB: Setting file '.\ibtmp1' size to 12 MB. Physically writing the file full; Please wait ...
  184. 2021-10-18T17:24:37.831172Z 0 [Note] InnoDB: File '.\ibtmp1' size is now 12 MB.
  185. 2021-10-18T17:24:37.836803Z 0 [Note] InnoDB: 96 redo rollback segment(s) found. 96 redo rollback segment(s) are active.
  186. 2021-10-18T17:24:37.837259Z 0 [Note] InnoDB: 32 non-redo rollback segment(s) are active.
  187. 2021-10-18T17:24:37.837841Z 0 [Note] InnoDB: Waiting for purge to start
  188. 2021-10-18T17:24:37.897912Z 0 [Note] InnoDB: 5.7.33 started; log sequence number 2746869
  189. 2021-10-18T17:24:37.898695Z 0 [Note] InnoDB: Loading buffer pool(s) from C:\laragon\data\mysql\ib_buffer_pool
  190. 2021-10-18T17:24:37.898804Z 0 [Note] Plugin 'FEDERATED' is disabled.
  191. 2021-10-18T17:24:37.906027Z 0 [Note] Found ca.pem, server-cert.pem and server-key.pem in data directory. Trying to enable SSL support using them.
  192. 2021-10-18T17:24:37.906679Z 0 [Note] Skipping generation of SSL certificates as certificate files are present in data directory.
  193. 2021-10-18T17:24:37.907961Z 0 [Warning] CA certificate ca.pem is self signed.
  194. 2021-10-18T17:24:37.908185Z 0 [Note] InnoDB: Buffer pool(s) load completed at 211018 19:24:37
  195. 2021-10-18T17:24:37.908388Z 0 [Note] Skipping generation of RSA key pair as key files are present in data directory.
  196. 2021-10-18T17:24:37.909159Z 0 [Note] Server hostname (bind-address): '*'; port: 3306
  197. 2021-10-18T17:24:37.909579Z 0 [Note] IPv6 is available.
  198. 2021-10-18T17:24:37.909809Z 0 [Note]   - '::' resolves to '::';
  199. 2021-10-18T17:24:37.910083Z 0 [Note] Server socket created on IP: '::'.
  200. 2021-10-18T17:24:37.910361Z 0 [ERROR] Can't start server: Bind on TCP/IP port: No such file or directory
  201. 2021-10-18T17:24:37.910715Z 0 [ERROR] Do you already have another mysqld server running on port: 3306 ?
  202. 2021-10-18T17:24:37.911068Z 0 [ERROR] Aborting
  203.  
  204. 2021-10-18T17:24:37.911264Z 0 [Note] Binlog end
  205. 2021-10-18T17:24:37.911480Z 0 [Note] Shutting down plugin 'ngram'
  206. 2021-10-18T17:24:37.911726Z 0 [Note] Shutting down plugin 'partition'
  207. 2021-10-18T17:24:37.911973Z 0 [Note] Shutting down plugin 'BLACKHOLE'
  208. 2021-10-18T17:24:37.912223Z 0 [Note] Shutting down plugin 'ARCHIVE'
  209. 2021-10-18T17:24:37.912465Z 0 [Note] Shutting down plugin 'PERFORMANCE_SCHEMA'
  210. 2021-10-18T17:24:37.912758Z 0 [Note] Shutting down plugin 'MRG_MYISAM'
  211. 2021-10-18T17:24:37.913012Z 0 [Note] Shutting down plugin 'MyISAM'
  212. 2021-10-18T17:24:37.913299Z 0 [Note] Shutting down plugin 'INNODB_SYS_VIRTUAL'
  213. 2021-10-18T17:24:37.913616Z 0 [Note] Shutting down plugin 'INNODB_SYS_DATAFILES'
  214. 2021-10-18T17:24:37.913898Z 0 [Note] Shutting down plugin 'INNODB_SYS_TABLESPACES'
  215. 2021-10-18T17:24:37.914183Z 0 [Note] Shutting down plugin 'INNODB_SYS_FOREIGN_COLS'
  216. 2021-10-18T17:24:37.914466Z 0 [Note] Shutting down plugin 'INNODB_SYS_FOREIGN'
  217. 2021-10-18T17:24:37.914803Z 0 [Note] Shutting down plugin 'INNODB_SYS_FIELDS'
  218. 2021-10-18T17:24:37.915088Z 0 [Note] Shutting down plugin 'INNODB_SYS_COLUMNS'
  219. 2021-10-18T17:24:37.915369Z 0 [Note] Shutting down plugin 'INNODB_SYS_INDEXES'
  220. 2021-10-18T17:24:37.915644Z 0 [Note] Shutting down plugin 'INNODB_SYS_TABLESTATS'
  221. 2021-10-18T17:24:37.915926Z 0 [Note] Shutting down plugin 'INNODB_SYS_TABLES'
  222. 2021-10-18T17:24:37.916197Z 0 [Note] Shutting down plugin 'INNODB_FT_INDEX_TABLE'
  223. 2021-10-18T17:24:37.916477Z 0 [Note] Shutting down plugin 'INNODB_FT_INDEX_CACHE'
  224. 2021-10-18T17:24:37.916774Z 0 [Note] Shutting down plugin 'INNODB_FT_CONFIG'
  225. 2021-10-18T17:24:37.917039Z 0 [Note] Shutting down plugin 'INNODB_FT_BEING_DELETED'
  226. 2021-10-18T17:24:37.917327Z 0 [Note] Shutting down plugin 'INNODB_FT_DELETED'
  227. 2021-10-18T17:24:37.917595Z 0 [Note] Shutting down plugin 'INNODB_FT_DEFAULT_STOPWORD'
  228. 2021-10-18T17:24:37.917923Z 0 [Note] Shutting down plugin 'INNODB_METRICS'
  229. 2021-10-18T17:24:37.918194Z 0 [Note] Shutting down plugin 'INNODB_TEMP_TABLE_INFO'
  230. 2021-10-18T17:24:37.918481Z 0 [Note] Shutting down plugin 'INNODB_BUFFER_POOL_STATS'
  231. 2021-10-18T17:24:37.918774Z 0 [Note] Shutting down plugin 'INNODB_BUFFER_PAGE_LRU'
  232. 2021-10-18T17:24:37.919058Z 0 [Note] Shutting down plugin 'INNODB_BUFFER_PAGE'
  233. 2021-10-18T17:24:37.919332Z 0 [Note] Shutting down plugin 'INNODB_CMP_PER_INDEX_RESET'
  234. 2021-10-18T17:24:37.919627Z 0 [Note] Shutting down plugin 'INNODB_CMP_PER_INDEX'
  235. 2021-10-18T17:24:37.919908Z 0 [Note] Shutting down plugin 'INNODB_CMPMEM_RESET'
  236. 2021-10-18T17:24:37.920188Z 0 [Note] Shutting down plugin 'INNODB_CMPMEM'
  237. 2021-10-18T17:24:37.920445Z 0 [Note] Shutting down plugin 'INNODB_CMP_RESET'
  238. 2021-10-18T17:24:37.920723Z 0 [Note] Shutting down plugin 'INNODB_CMP'
  239. 2021-10-18T17:24:37.920972Z 0 [Note] Shutting down plugin 'INNODB_LOCK_WAITS'
  240. 2021-10-18T17:24:37.921245Z 0 [Note] Shutting down plugin 'INNODB_LOCKS'
  241. 2021-10-18T17:24:37.921500Z 0 [Note] Shutting down plugin 'INNODB_TRX'
  242. 2021-10-18T17:24:37.921750Z 0 [Note] Shutting down plugin 'InnoDB'
  243. 2021-10-18T17:24:37.922010Z 0 [Note] InnoDB: FTS optimize thread exiting.
  244. 2021-10-18T17:24:37.922389Z 0 [Note] InnoDB: Starting shutdown...
  245. 2021-10-18T17:24:38.037316Z 0 [Note] InnoDB: Dumping buffer pool(s) to C:\laragon\data\mysql\ib_buffer_pool
  246. 2021-10-18T17:24:38.038784Z 0 [Note] InnoDB: Buffer pool(s) dump completed at 211018 19:24:38
  247. 2021-10-18T17:24:39.230257Z 0 [Note] InnoDB: Shutdown completed; log sequence number 2746904
  248. 2021-10-18T17:24:39.230885Z 0 [Note] InnoDB: Removed temporary tablespace data file: "ibtmp1"
  249. 2021-10-18T17:24:39.231244Z 0 [Note] Shutting down plugin 'MEMORY'
  250. 2021-10-18T17:24:39.231509Z 0 [Note] Shutting down plugin 'CSV'
  251. 2021-10-18T17:24:39.231759Z 0 [Note] Shutting down plugin 'sha256_password'
  252. 2021-10-18T17:24:39.232027Z 0 [Note] Shutting down plugin 'mysql_native_password'
  253. 2021-10-18T17:24:39.232407Z 0 [Note] Shutting down plugin 'binlog'
  254. 2021-10-18T17:24:39.233671Z 0 [Note] C:\laragon\bin\mysql\mysql-5.7.33-winx64\bin\mysqld: Shutdown complete
  255.  
  256. 2021-10-18T17:24:47.602694Z 0 [Warning] Insecure configuration for --secure-file-priv: Current value does not restrict location of generated files. Consider setting it to a valid, non-empty path.
  257. 2021-10-18T17:24:47.602977Z 0 [Note] C:\laragon\bin\mysql\mysql-5.7.33-winx64\bin\mysqld (mysqld 5.7.33) starting as process 17712 ...
  258. 2021-10-18T17:24:47.612813Z 0 [Note] InnoDB: Mutexes and rw_locks use Windows interlocked functions
  259. 2021-10-18T17:24:47.613232Z 0 [Note] InnoDB: Uses event mutexes
  260. 2021-10-18T17:24:47.613472Z 0 [Note] InnoDB: _mm_lfence() and _mm_sfence() are used for memory barrier
  261. 2021-10-18T17:24:47.613823Z 0 [Note] InnoDB: Compressed tables use zlib 1.2.11
  262. 2021-10-18T17:24:47.614302Z 0 [Note] InnoDB: Number of pools: 1
  263. 2021-10-18T17:24:47.614883Z 0 [Note] InnoDB: Not using CPU crc32 instructions
  264. 2021-10-18T17:24:47.616638Z 0 [Note] InnoDB: Initializing buffer pool, total size = 128M, instances = 1, chunk size = 128M
  265. 2021-10-18T17:24:47.620538Z 0 [Note] InnoDB: Completed initialization of buffer pool
  266. 2021-10-18T17:24:47.639668Z 0 [Note] InnoDB: Highest supported file format is Barracuda.
  267. 2021-10-18T17:24:47.668398Z 0 [Note] InnoDB: Creating shared tablespace for temporary tables
  268. 2021-10-18T17:24:47.669015Z 0 [Note] InnoDB: Setting file '.\ibtmp1' size to 12 MB. Physically writing the file full; Please wait ...
  269. 2021-10-18T17:24:47.675402Z 0 [Note] InnoDB: File '.\ibtmp1' size is now 12 MB.
  270. 2021-10-18T17:24:47.681143Z 0 [Note] InnoDB: 96 redo rollback segment(s) found. 96 redo rollback segment(s) are active.
  271. 2021-10-18T17:24:47.681608Z 0 [Note] InnoDB: 32 non-redo rollback segment(s) are active.
  272. 2021-10-18T17:24:47.682136Z 0 [Note] InnoDB: Waiting for purge to start
  273. 2021-10-18T17:24:47.741296Z 0 [Note] InnoDB: 5.7.33 started; log sequence number 2746904
  274. 2021-10-18T17:24:47.742233Z 0 [Note] InnoDB: Loading buffer pool(s) from C:\laragon\data\mysql\ib_buffer_pool
  275. 2021-10-18T17:24:47.742233Z 0 [Note] Plugin 'FEDERATED' is disabled.
  276. 2021-10-18T17:24:47.747854Z 0 [Note] Found ca.pem, server-cert.pem and server-key.pem in data directory. Trying to enable SSL support using them.
  277. 2021-10-18T17:24:47.748355Z 0 [Note] Skipping generation of SSL certificates as certificate files are present in data directory.
  278. 2021-10-18T17:24:47.749762Z 0 [Warning] CA certificate ca.pem is self signed.
  279. 2021-10-18T17:24:47.750177Z 0 [Note] Skipping generation of RSA key pair as key files are present in data directory.
  280. 2021-10-18T17:24:47.750743Z 0 [Note] Server hostname (bind-address): '*'; port: 3306
  281. 2021-10-18T17:24:47.750924Z 0 [Note] InnoDB: Buffer pool(s) load completed at 211018 19:24:47
  282. 2021-10-18T17:24:47.751223Z 0 [Note] IPv6 is available.
  283. 2021-10-18T17:24:47.751536Z 0 [Note]   - '::' resolves to '::';
  284. 2021-10-18T17:24:47.751810Z 0 [Note] Server socket created on IP: '::'.
  285. 2021-10-18T17:24:47.752111Z 0 [ERROR] Can't start server: Bind on TCP/IP port: No such file or directory
  286. 2021-10-18T17:24:47.752491Z 0 [ERROR] Do you already have another mysqld server running on port: 3306 ?
  287. 2021-10-18T17:24:47.753041Z 0 [ERROR] Aborting
  288.  
  289. 2021-10-18T17:24:47.753239Z 0 [Note] Binlog end
  290. 2021-10-18T17:24:47.753490Z 0 [Note] Shutting down plugin 'ngram'
  291. 2021-10-18T17:24:47.753734Z 0 [Note] Shutting down plugin 'partition'
  292. 2021-10-18T17:24:47.753986Z 0 [Note] Shutting down plugin 'BLACKHOLE'
  293. 2021-10-18T17:24:47.754232Z 0 [Note] Shutting down plugin 'ARCHIVE'
  294. 2021-10-18T17:24:47.754513Z 0 [Note] Shutting down plugin 'PERFORMANCE_SCHEMA'
  295. 2021-10-18T17:24:47.754966Z 0 [Note] Shutting down plugin 'MRG_MYISAM'
  296. 2021-10-18T17:24:47.755351Z 0 [Note] Shutting down plugin 'MyISAM'
  297. 2021-10-18T17:24:47.755621Z 0 [Note] Shutting down plugin 'INNODB_SYS_VIRTUAL'
  298. 2021-10-18T17:24:47.755902Z 0 [Note] Shutting down plugin 'INNODB_SYS_DATAFILES'
  299. 2021-10-18T17:24:47.756183Z 0 [Note] Shutting down plugin 'INNODB_SYS_TABLESPACES'
  300. 2021-10-18T17:24:47.756502Z 0 [Note] Shutting down plugin 'INNODB_SYS_FOREIGN_COLS'
  301. 2021-10-18T17:24:47.756807Z 0 [Note] Shutting down plugin 'INNODB_SYS_FOREIGN'
  302. 2021-10-18T17:24:47.757090Z 0 [Note] Shutting down plugin 'INNODB_SYS_FIELDS'
  303. 2021-10-18T17:24:47.757358Z 0 [Note] Shutting down plugin 'INNODB_SYS_COLUMNS'
  304. 2021-10-18T17:24:47.757658Z 0 [Note] Shutting down plugin 'INNODB_SYS_INDEXES'
  305. 2021-10-18T17:24:47.757948Z 0 [Note] Shutting down plugin 'INNODB_SYS_TABLESTATS'
  306. 2021-10-18T17:24:47.758230Z 0 [Note] Shutting down plugin 'INNODB_SYS_TABLES'
  307. 2021-10-18T17:24:47.758504Z 0 [Note] Shutting down plugin 'INNODB_FT_INDEX_TABLE'
  308. 2021-10-18T17:24:47.758782Z 0 [Note] Shutting down plugin 'INNODB_FT_INDEX_CACHE'
  309. 2021-10-18T17:24:47.759077Z 0 [Note] Shutting down plugin 'INNODB_FT_CONFIG'
  310. 2021-10-18T17:24:47.759344Z 0 [Note] Shutting down plugin 'INNODB_FT_BEING_DELETED'
  311. 2021-10-18T17:24:47.759661Z 0 [Note] Shutting down plugin 'INNODB_FT_DELETED'
  312. 2021-10-18T17:24:47.760004Z 0 [Note] Shutting down plugin 'INNODB_FT_DEFAULT_STOPWORD'
  313. 2021-10-18T17:24:47.760444Z 0 [Note] Shutting down plugin 'INNODB_METRICS'
  314. 2021-10-18T17:24:47.760706Z 0 [Note] Shutting down plugin 'INNODB_TEMP_TABLE_INFO'
  315. 2021-10-18T17:24:47.761043Z 0 [Note] Shutting down plugin 'INNODB_BUFFER_POOL_STATS'
  316. 2021-10-18T17:24:47.761332Z 0 [Note] Shutting down plugin 'INNODB_BUFFER_PAGE_LRU'
  317. 2021-10-18T17:24:47.761640Z 0 [Note] Shutting down plugin 'INNODB_BUFFER_PAGE'
  318. 2021-10-18T17:24:47.761914Z 0 [Note] Shutting down plugin 'INNODB_CMP_PER_INDEX_RESET'
  319. 2021-10-18T17:24:47.762208Z 0 [Note] Shutting down plugin 'INNODB_CMP_PER_INDEX'
  320. 2021-10-18T17:24:47.762507Z 0 [Note] Shutting down plugin 'INNODB_CMPMEM_RESET'
  321. 2021-10-18T17:24:47.762782Z 0 [Note] Shutting down plugin 'INNODB_CMPMEM'
  322. 2021-10-18T17:24:47.763041Z 0 [Note] Shutting down plugin 'INNODB_CMP_RESET'
  323. 2021-10-18T17:24:47.763306Z 0 [Note] Shutting down plugin 'INNODB_CMP'
  324. 2021-10-18T17:24:47.763575Z 0 [Note] Shutting down plugin 'INNODB_LOCK_WAITS'
  325. 2021-10-18T17:24:47.763845Z 0 [Note] Shutting down plugin 'INNODB_LOCKS'
  326. 2021-10-18T17:24:47.764121Z 0 [Note] Shutting down plugin 'INNODB_TRX'
  327. 2021-10-18T17:24:47.764371Z 0 [Note] Shutting down plugin 'InnoDB'
  328. 2021-10-18T17:24:47.764628Z 0 [Note] InnoDB: FTS optimize thread exiting.
  329. 2021-10-18T17:24:47.765072Z 0 [Note] InnoDB: Starting shutdown...
  330. 2021-10-18T17:24:47.880544Z 0 [Note] InnoDB: Dumping buffer pool(s) to C:\laragon\data\mysql\ib_buffer_pool
  331. 2021-10-18T17:24:47.881667Z 0 [Note] InnoDB: Buffer pool(s) dump completed at 211018 19:24:47
  332. 2021-10-18T17:24:49.289308Z 0 [Note] InnoDB: Shutdown completed; log sequence number 2746923
  333. 2021-10-18T17:24:49.290188Z 0 [Note] InnoDB: Removed temporary tablespace data file: "ibtmp1"
  334. 2021-10-18T17:24:49.290553Z 0 [Note] Shutting down plugin 'MEMORY'
  335. 2021-10-18T17:24:49.290800Z 0 [Note] Shutting down plugin 'CSV'
  336. 2021-10-18T17:24:49.291162Z 0 [Note] Shutting down plugin 'sha256_password'
  337. 2021-10-18T17:24:49.291483Z 0 [Note] Shutting down plugin 'mysql_native_password'
  338. 2021-10-18T17:24:49.291878Z 0 [Note] Shutting down plugin 'binlog'
  339. 2021-10-18T17:24:49.293299Z 0 [Note] C:\laragon\bin\mysql\mysql-5.7.33-winx64\bin\mysqld: Shutdown complete
  340.  
  341. 2021-10-18T17:26:47.102733Z 0 [Warning] Insecure configuration for --secure-file-priv: Current value does not restrict location of generated files. Consider setting it to a valid, non-empty path.
  342. 2021-10-18T17:26:47.103037Z 0 [Note] C:\laragon\bin\mysql\mysql-5.7.33-winx64\bin\mysqld (mysqld 5.7.33) starting as process 5512 ...
  343. 2021-10-18T17:26:47.112505Z 0 [Note] InnoDB: Mutexes and rw_locks use Windows interlocked functions
  344. 2021-10-18T17:26:47.112906Z 0 [Note] InnoDB: Uses event mutexes
  345. 2021-10-18T17:26:47.113150Z 0 [Note] InnoDB: _mm_lfence() and _mm_sfence() are used for memory barrier
  346. 2021-10-18T17:26:47.113500Z 0 [Note] InnoDB: Compressed tables use zlib 1.2.11
  347. 2021-10-18T17:26:47.113979Z 0 [Note] InnoDB: Number of pools: 1
  348. 2021-10-18T17:26:47.114298Z 0 [Note] InnoDB: Not using CPU crc32 instructions
  349. 2021-10-18T17:26:47.116083Z 0 [Note] InnoDB: Initializing buffer pool, total size = 128M, instances = 1, chunk size = 128M
  350. 2021-10-18T17:26:47.119907Z 0 [Note] InnoDB: Completed initialization of buffer pool
  351. 2021-10-18T17:26:47.152556Z 0 [Note] InnoDB: Highest supported file format is Barracuda.
  352. 2021-10-18T17:26:47.180451Z 0 [Note] InnoDB: Creating shared tablespace for temporary tables
  353. 2021-10-18T17:26:47.181108Z 0 [Note] InnoDB: Setting file '.\ibtmp1' size to 12 MB. Physically writing the file full; Please wait ...
  354. 2021-10-18T17:26:47.187812Z 0 [Note] InnoDB: File '.\ibtmp1' size is now 12 MB.
  355. 2021-10-18T17:26:47.193141Z 0 [Note] InnoDB: 96 redo rollback segment(s) found. 96 redo rollback segment(s) are active.
  356. 2021-10-18T17:26:47.193579Z 0 [Note] InnoDB: 32 non-redo rollback segment(s) are active.
  357. 2021-10-18T17:26:47.194184Z 0 [Note] InnoDB: Waiting for purge to start
  358. 2021-10-18T17:26:47.254282Z 0 [Note] InnoDB: 5.7.33 started; log sequence number 2746923
  359. 2021-10-18T17:26:47.255070Z 0 [Note] Plugin 'FEDERATED' is disabled.
  360. 2021-10-18T17:26:47.255077Z 0 [Note] InnoDB: Loading buffer pool(s) from C:\laragon\data\mysql\ib_buffer_pool
  361. 2021-10-18T17:26:47.260659Z 0 [Note] Found ca.pem, server-cert.pem and server-key.pem in data directory. Trying to enable SSL support using them.
  362. 2021-10-18T17:26:47.261163Z 0 [Note] Skipping generation of SSL certificates as certificate files are present in data directory.
  363. 2021-10-18T17:26:47.262426Z 0 [Warning] CA certificate ca.pem is self signed.
  364. 2021-10-18T17:26:47.262811Z 0 [Note] Skipping generation of RSA key pair as key files are present in data directory.
  365. 2021-10-18T17:26:47.263342Z 0 [Note] Server hostname (bind-address): '*'; port: 3306
  366. 2021-10-18T17:26:47.263504Z 0 [Note] InnoDB: Buffer pool(s) load completed at 211018 19:26:47
  367. 2021-10-18T17:26:47.263762Z 0 [Note] IPv6 is available.
  368. 2021-10-18T17:26:47.264109Z 0 [Note]   - '::' resolves to '::';
  369. 2021-10-18T17:26:47.264375Z 0 [Note] Server socket created on IP: '::'.
  370. 2021-10-18T17:26:47.264653Z 0 [ERROR] Can't start server: Bind on TCP/IP port: No such file or directory
  371. 2021-10-18T17:26:47.265008Z 0 [ERROR] Do you already have another mysqld server running on port: 3306 ?
  372. 2021-10-18T17:26:47.265371Z 0 [ERROR] Aborting
  373.  
  374. 2021-10-18T17:26:47.265573Z 0 [Note] Binlog end
  375. 2021-10-18T17:26:47.265783Z 0 [Note] Shutting down plugin 'ngram'
  376. 2021-10-18T17:26:47.266028Z 0 [Note] Shutting down plugin 'partition'
  377. 2021-10-18T17:26:47.266275Z 0 [Note] Shutting down plugin 'BLACKHOLE'
  378. 2021-10-18T17:26:47.266525Z 0 [Note] Shutting down plugin 'ARCHIVE'
  379. 2021-10-18T17:26:47.266765Z 0 [Note] Shutting down plugin 'PERFORMANCE_SCHEMA'
  380. 2021-10-18T17:26:47.267055Z 0 [Note] Shutting down plugin 'MRG_MYISAM'
  381. 2021-10-18T17:26:47.267308Z 0 [Note] Shutting down plugin 'MyISAM'
  382. 2021-10-18T17:26:47.267557Z 0 [Note] Shutting down plugin 'INNODB_SYS_VIRTUAL'
  383. 2021-10-18T17:26:47.267832Z 0 [Note] Shutting down plugin 'INNODB_SYS_DATAFILES'
  384. 2021-10-18T17:26:47.268113Z 0 [Note] Shutting down plugin 'INNODB_SYS_TABLESPACES'
  385. 2021-10-18T17:26:47.268394Z 0 [Note] Shutting down plugin 'INNODB_SYS_FOREIGN_COLS'
  386. 2021-10-18T17:26:47.268683Z 0 [Note] Shutting down plugin 'INNODB_SYS_FOREIGN'
  387. 2021-10-18T17:26:47.268955Z 0 [Note] Shutting down plugin 'INNODB_SYS_FIELDS'
  388. 2021-10-18T17:26:47.269223Z 0 [Note] Shutting down plugin 'INNODB_SYS_COLUMNS'
  389. 2021-10-18T17:26:47.269548Z 0 [Note] Shutting down plugin 'INNODB_SYS_INDEXES'
  390. 2021-10-18T17:26:47.269822Z 0 [Note] Shutting down plugin 'INNODB_SYS_TABLESTATS'
  391. 2021-10-18T17:26:47.270104Z 0 [Note] Shutting down plugin 'INNODB_SYS_TABLES'
  392. 2021-10-18T17:26:47.270373Z 0 [Note] Shutting down plugin 'INNODB_FT_INDEX_TABLE'
  393. 2021-10-18T17:26:47.270656Z 0 [Note] Shutting down plugin 'INNODB_FT_INDEX_CACHE'
  394. 2021-10-18T17:26:47.270954Z 0 [Note] Shutting down plugin 'INNODB_FT_CONFIG'
  395. 2021-10-18T17:26:47.271238Z 0 [Note] Shutting down plugin 'INNODB_FT_BEING_DELETED'
  396. 2021-10-18T17:26:47.271564Z 0 [Note] Shutting down plugin 'INNODB_FT_DELETED'
  397. 2021-10-18T17:26:47.271839Z 0 [Note] Shutting down plugin 'INNODB_FT_DEFAULT_STOPWORD'
  398. 2021-10-18T17:26:47.272140Z 0 [Note] Shutting down plugin 'INNODB_METRICS'
  399. 2021-10-18T17:26:47.272402Z 0 [Note] Shutting down plugin 'INNODB_TEMP_TABLE_INFO'
  400. 2021-10-18T17:26:47.272690Z 0 [Note] Shutting down plugin 'INNODB_BUFFER_POOL_STATS'
  401. 2021-10-18T17:26:47.272983Z 0 [Note] Shutting down plugin 'INNODB_BUFFER_PAGE_LRU'
  402. 2021-10-18T17:26:47.273268Z 0 [Note] Shutting down plugin 'INNODB_BUFFER_PAGE'
  403. 2021-10-18T17:26:47.273543Z 0 [Note] Shutting down plugin 'INNODB_CMP_PER_INDEX_RESET'
  404. 2021-10-18T17:26:47.273840Z 0 [Note] Shutting down plugin 'INNODB_CMP_PER_INDEX'
  405. 2021-10-18T17:26:47.274123Z 0 [Note] Shutting down plugin 'INNODB_CMPMEM_RESET'
  406. 2021-10-18T17:26:47.274399Z 0 [Note] Shutting down plugin 'INNODB_CMPMEM'
  407. 2021-10-18T17:26:47.274663Z 0 [Note] Shutting down plugin 'INNODB_CMP_RESET'
  408. 2021-10-18T17:26:47.274942Z 0 [Note] Shutting down plugin 'INNODB_CMP'
  409. 2021-10-18T17:26:47.275210Z 0 [Note] Shutting down plugin 'INNODB_LOCK_WAITS'
  410. 2021-10-18T17:26:47.275489Z 0 [Note] Shutting down plugin 'INNODB_LOCKS'
  411. 2021-10-18T17:26:47.275747Z 0 [Note] Shutting down plugin 'INNODB_TRX'
  412. 2021-10-18T17:26:47.276000Z 0 [Note] Shutting down plugin 'InnoDB'
  413. 2021-10-18T17:26:47.276259Z 0 [Note] InnoDB: FTS optimize thread exiting.
  414. 2021-10-18T17:26:47.276574Z 0 [Note] InnoDB: Starting shutdown...
  415. 2021-10-18T17:26:47.378124Z 0 [Note] InnoDB: Dumping buffer pool(s) to C:\laragon\data\mysql\ib_buffer_pool
  416. 2021-10-18T17:26:47.379501Z 0 [Note] InnoDB: Buffer pool(s) dump completed at 211018 19:26:47
  417. 2021-10-18T17:26:48.684442Z 0 [Note] InnoDB: Shutdown completed; log sequence number 2746942
  418. 2021-10-18T17:26:48.685203Z 0 [Note] InnoDB: Removed temporary tablespace data file: "ibtmp1"
  419. 2021-10-18T17:26:48.685543Z 0 [Note] Shutting down plugin 'MEMORY'
  420. 2021-10-18T17:26:48.685790Z 0 [Note] Shutting down plugin 'CSV'
  421. 2021-10-18T17:26:48.686038Z 0 [Note] Shutting down plugin 'sha256_password'
  422. 2021-10-18T17:26:48.686308Z 0 [Note] Shutting down plugin 'mysql_native_password'
  423. 2021-10-18T17:26:48.686686Z 0 [Note] Shutting down plugin 'binlog'
  424. 2021-10-18T17:26:48.687932Z 0 [Note] C:\laragon\bin\mysql\mysql-5.7.33-winx64\bin\mysqld: Shutdown complete
  425.  
  426. 2021-10-18T17:26:56.899068Z 0 [Warning] Insecure configuration for --secure-file-priv: Current value does not restrict location of generated files. Consider setting it to a valid, non-empty path.
  427. 2021-10-18T17:26:56.899321Z 0 [Note] C:\laragon\bin\mysql\mysql-5.7.33-winx64\bin\mysqld (mysqld 5.7.33) starting as process 14860 ...
  428. 2021-10-18T17:26:56.909203Z 0 [Note] InnoDB: Mutexes and rw_locks use Windows interlocked functions
  429. 2021-10-18T17:26:56.909583Z 0 [Note] InnoDB: Uses event mutexes
  430. 2021-10-18T17:26:56.909823Z 0 [Note] InnoDB: _mm_lfence() and _mm_sfence() are used for memory barrier
  431. 2021-10-18T17:26:56.910170Z 0 [Note] InnoDB: Compressed tables use zlib 1.2.11
  432. 2021-10-18T17:26:56.910667Z 0 [Note] InnoDB: Number of pools: 1
  433. 2021-10-18T17:26:56.911007Z 0 [Note] InnoDB: Not using CPU crc32 instructions
  434. 2021-10-18T17:26:56.912905Z 0 [Note] InnoDB: Initializing buffer pool, total size = 128M, instances = 1, chunk size = 128M
  435. 2021-10-18T17:26:56.917115Z 0 [Note] InnoDB: Completed initialization of buffer pool
  436. 2021-10-18T17:26:56.946742Z 0 [Note] InnoDB: Highest supported file format is Barracuda.
  437. 2021-10-18T17:26:56.976049Z 0 [Note] InnoDB: Creating shared tablespace for temporary tables
  438. 2021-10-18T17:26:56.976776Z 0 [Note] InnoDB: Setting file '.\ibtmp1' size to 12 MB. Physically writing the file full; Please wait ...
  439. 2021-10-18T17:26:56.983206Z 0 [Note] InnoDB: File '.\ibtmp1' size is now 12 MB.
  440. 2021-10-18T17:26:56.988580Z 0 [Note] InnoDB: 96 redo rollback segment(s) found. 96 redo rollback segment(s) are active.
  441. 2021-10-18T17:26:56.989035Z 0 [Note] InnoDB: 32 non-redo rollback segment(s) are active.
  442. 2021-10-18T17:26:56.989561Z 0 [Note] InnoDB: Waiting for purge to start
  443. 2021-10-18T17:26:57.050170Z 0 [Note] InnoDB: 5.7.33 started; log sequence number 2746942
  444. 2021-10-18T17:26:57.050832Z 0 [Note] InnoDB: Loading buffer pool(s) from C:\laragon\data\mysql\ib_buffer_pool
  445. 2021-10-18T17:26:57.050847Z 0 [Note] Plugin 'FEDERATED' is disabled.
  446. 2021-10-18T17:26:57.056170Z 0 [Note] Found ca.pem, server-cert.pem and server-key.pem in data directory. Trying to enable SSL support using them.
  447. 2021-10-18T17:26:57.056676Z 0 [Note] Skipping generation of SSL certificates as certificate files are present in data directory.
  448. 2021-10-18T17:26:57.057932Z 0 [Warning] CA certificate ca.pem is self signed.
  449. 2021-10-18T17:26:57.058316Z 0 [Note] Skipping generation of RSA key pair as key files are present in data directory.
  450. 2021-10-18T17:26:57.058845Z 0 [Note] Server hostname (bind-address): '*'; port: 3306
  451. 2021-10-18T17:26:57.059135Z 0 [Note] InnoDB: Buffer pool(s) load completed at 211018 19:26:57
  452. 2021-10-18T17:26:57.059299Z 0 [Note] IPv6 is available.
  453. 2021-10-18T17:26:57.059825Z 0 [Note]   - '::' resolves to '::';
  454. 2021-10-18T17:26:57.060096Z 0 [Note] Server socket created on IP: '::'.
  455. 2021-10-18T17:26:57.060372Z 0 [ERROR] Can't start server: Bind on TCP/IP port: No such file or directory
  456. 2021-10-18T17:26:57.060740Z 0 [ERROR] Do you already have another mysqld server running on port: 3306 ?
  457. 2021-10-18T17:26:57.061092Z 0 [ERROR] Aborting
  458.  
  459. 2021-10-18T17:26:57.061285Z 0 [Note] Binlog end
  460. 2021-10-18T17:26:57.061503Z 0 [Note] Shutting down plugin 'ngram'
  461. 2021-10-18T17:26:57.061749Z 0 [Note] Shutting down plugin 'partition'
  462. 2021-10-18T17:26:57.062003Z 0 [Note] Shutting down plugin 'BLACKHOLE'
  463. 2021-10-18T17:26:57.062251Z 0 [Note] Shutting down plugin 'ARCHIVE'
  464. 2021-10-18T17:26:57.062497Z 0 [Note] Shutting down plugin 'PERFORMANCE_SCHEMA'
  465. 2021-10-18T17:26:57.062787Z 0 [Note] Shutting down plugin 'MRG_MYISAM'
  466. 2021-10-18T17:26:57.063044Z 0 [Note] Shutting down plugin 'MyISAM'
  467. 2021-10-18T17:26:57.063294Z 0 [Note] Shutting down plugin 'INNODB_SYS_VIRTUAL'
  468. 2021-10-18T17:26:57.063574Z 0 [Note] Shutting down plugin 'INNODB_SYS_DATAFILES'
  469. 2021-10-18T17:26:57.063856Z 0 [Note] Shutting down plugin 'INNODB_SYS_TABLESPACES'
  470. 2021-10-18T17:26:57.064142Z 0 [Note] Shutting down plugin 'INNODB_SYS_FOREIGN_COLS'
  471. 2021-10-18T17:26:57.064429Z 0 [Note] Shutting down plugin 'INNODB_SYS_FOREIGN'
  472. 2021-10-18T17:26:57.064700Z 0 [Note] Shutting down plugin 'INNODB_SYS_FIELDS'
  473. 2021-10-18T17:26:57.064971Z 0 [Note] Shutting down plugin 'INNODB_SYS_COLUMNS'
  474. 2021-10-18T17:26:57.065260Z 0 [Note] Shutting down plugin 'INNODB_SYS_INDEXES'
  475. 2021-10-18T17:26:57.065549Z 0 [Note] Shutting down plugin 'INNODB_SYS_TABLESTATS'
  476. 2021-10-18T17:26:57.065872Z 0 [Note] Shutting down plugin 'INNODB_SYS_TABLES'
  477. 2021-10-18T17:26:57.066152Z 0 [Note] Shutting down plugin 'INNODB_FT_INDEX_TABLE'
  478. 2021-10-18T17:26:57.066452Z 0 [Note] Shutting down plugin 'INNODB_FT_INDEX_CACHE'
  479. 2021-10-18T17:26:57.066751Z 0 [Note] Shutting down plugin 'INNODB_FT_CONFIG'
  480. 2021-10-18T17:26:57.067028Z 0 [Note] Shutting down plugin 'INNODB_FT_BEING_DELETED'
  481. 2021-10-18T17:26:57.067319Z 0 [Note] Shutting down plugin 'INNODB_FT_DELETED'
  482. 2021-10-18T17:26:57.067592Z 0 [Note] Shutting down plugin 'INNODB_FT_DEFAULT_STOPWORD'
  483. 2021-10-18T17:26:57.067888Z 0 [Note] Shutting down plugin 'INNODB_METRICS'
  484. 2021-10-18T17:26:57.068151Z 0 [Note] Shutting down plugin 'INNODB_TEMP_TABLE_INFO'
  485. 2021-10-18T17:26:57.068436Z 0 [Note] Shutting down plugin 'INNODB_BUFFER_POOL_STATS'
  486. 2021-10-18T17:26:57.068725Z 0 [Note] Shutting down plugin 'INNODB_BUFFER_PAGE_LRU'
  487. 2021-10-18T17:26:57.069059Z 0 [Note] Shutting down plugin 'INNODB_BUFFER_PAGE'
  488. 2021-10-18T17:26:57.069332Z 0 [Note] Shutting down plugin 'INNODB_CMP_PER_INDEX_RESET'
  489. 2021-10-18T17:26:57.069630Z 0 [Note] Shutting down plugin 'INNODB_CMP_PER_INDEX'
  490. 2021-10-18T17:26:57.069908Z 0 [Note] Shutting down plugin 'INNODB_CMPMEM_RESET'
  491. 2021-10-18T17:26:57.070184Z 0 [Note] Shutting down plugin 'INNODB_CMPMEM'
  492. 2021-10-18T17:26:57.070444Z 0 [Note] Shutting down plugin 'INNODB_CMP_RESET'
  493. 2021-10-18T17:26:57.070709Z 0 [Note] Shutting down plugin 'INNODB_CMP'
  494. 2021-10-18T17:26:57.070958Z 0 [Note] Shutting down plugin 'INNODB_LOCK_WAITS'
  495. 2021-10-18T17:26:57.071228Z 0 [Note] Shutting down plugin 'INNODB_LOCKS'
  496. 2021-10-18T17:26:57.071497Z 0 [Note] Shutting down plugin 'INNODB_TRX'
  497. 2021-10-18T17:26:57.071745Z 0 [Note] Shutting down plugin 'InnoDB'
  498. 2021-10-18T17:26:57.072008Z 0 [Note] InnoDB: FTS optimize thread exiting.
  499. 2021-10-18T17:26:57.072326Z 0 [Note] InnoDB: Starting shutdown...
  500. 2021-10-18T17:26:57.174124Z 0 [Note] InnoDB: Dumping buffer pool(s) to C:\laragon\data\mysql\ib_buffer_pool
  501. 2021-10-18T17:26:57.175361Z 0 [Note] InnoDB: Buffer pool(s) dump completed at 211018 19:26:57
  502. 2021-10-18T17:26:58.479718Z 0 [Note] InnoDB: Shutdown completed; log sequence number 2746961
  503. 2021-10-18T17:26:58.480375Z 0 [Note] InnoDB: Removed temporary tablespace data file: "ibtmp1"
  504. 2021-10-18T17:26:58.480749Z 0 [Note] Shutting down plugin 'MEMORY'
  505. 2021-10-18T17:26:58.481097Z 0 [Note] Shutting down plugin 'CSV'
  506. 2021-10-18T17:26:58.481459Z 0 [Note] Shutting down plugin 'sha256_password'
  507. 2021-10-18T17:26:58.481744Z 0 [Note] Shutting down plugin 'mysql_native_password'
  508. 2021-10-18T17:26:58.482125Z 0 [Note] Shutting down plugin 'binlog'
  509. 2021-10-18T17:26:58.483369Z 0 [Note] C:\laragon\bin\mysql\mysql-5.7.33-winx64\bin\mysqld: Shutdown complete
  510.  
  511. 2021-10-18T17:28:17.445758Z 0 [Warning] Insecure configuration for --secure-file-priv: Current value does not restrict location of generated files. Consider setting it to a valid, non-empty path.
  512. 2021-10-18T17:28:17.446052Z 0 [Note] C:\laragon\bin\mysql\mysql-5.7.33-winx64\bin\mysqld (mysqld 5.7.33) starting as process 9052 ...
  513. 2021-10-18T17:28:17.456016Z 0 [Note] InnoDB: Mutexes and rw_locks use Windows interlocked functions
  514. 2021-10-18T17:28:17.456402Z 0 [Note] InnoDB: Uses event mutexes
  515. 2021-10-18T17:28:17.456645Z 0 [Note] InnoDB: _mm_lfence() and _mm_sfence() are used for memory barrier
  516. 2021-10-18T17:28:17.456993Z 0 [Note] InnoDB: Compressed tables use zlib 1.2.11
  517. 2021-10-18T17:28:17.457707Z 0 [Note] InnoDB: Number of pools: 1
  518. 2021-10-18T17:28:17.458060Z 0 [Note] InnoDB: Not using CPU crc32 instructions
  519. 2021-10-18T17:28:17.459804Z 0 [Note] InnoDB: Initializing buffer pool, total size = 128M, instances = 1, chunk size = 128M
  520. 2021-10-18T17:28:17.464040Z 0 [Note] InnoDB: Completed initialization of buffer pool
  521. 2021-10-18T17:28:17.483550Z 0 [Note] InnoDB: Highest supported file format is Barracuda.
  522. 2021-10-18T17:28:17.511921Z 0 [Note] InnoDB: Creating shared tablespace for temporary tables
  523. 2021-10-18T17:28:17.512471Z 0 [Note] InnoDB: Setting file '.\ibtmp1' size to 12 MB. Physically writing the file full; Please wait ...
  524. 2021-10-18T17:28:17.519778Z 0 [Note] InnoDB: File '.\ibtmp1' size is now 12 MB.
  525. 2021-10-18T17:28:17.524908Z 0 [Note] InnoDB: 96 redo rollback segment(s) found. 96 redo rollback segment(s) are active.
  526. 2021-10-18T17:28:17.525376Z 0 [Note] InnoDB: 32 non-redo rollback segment(s) are active.
  527. 2021-10-18T17:28:17.526045Z 0 [Note] InnoDB: Waiting for purge to start
  528. 2021-10-18T17:28:17.584814Z 0 [Note] InnoDB: 5.7.33 started; log sequence number 2746961
  529. 2021-10-18T17:28:17.585450Z 0 [Note] InnoDB: Loading buffer pool(s) from C:\laragon\data\mysql\ib_buffer_pool
  530. 2021-10-18T17:28:17.585493Z 0 [Note] Plugin 'FEDERATED' is disabled.
  531. 2021-10-18T17:28:17.591468Z 0 [Note] Found ca.pem, server-cert.pem and server-key.pem in data directory. Trying to enable SSL support using them.
  532. 2021-10-18T17:28:17.591983Z 0 [Note] Skipping generation of SSL certificates as certificate files are present in data directory.
  533. 2021-10-18T17:28:17.593279Z 0 [Warning] CA certificate ca.pem is self signed.
  534. 2021-10-18T17:28:17.593716Z 0 [Note] Skipping generation of RSA key pair as key files are present in data directory.
  535. 2021-10-18T17:28:17.593763Z 0 [Note] InnoDB: Buffer pool(s) load completed at 211018 19:28:17
  536. 2021-10-18T17:28:17.594285Z 0 [Note] Server hostname (bind-address): '*'; port: 3306
  537. 2021-10-18T17:28:17.594797Z 0 [Note] IPv6 is available.
  538. 2021-10-18T17:28:17.595047Z 0 [Note]   - '::' resolves to '::';
  539. 2021-10-18T17:28:17.595325Z 0 [Note] Server socket created on IP: '::'.
  540. 2021-10-18T17:28:17.595731Z 0 [ERROR] Can't start server: Bind on TCP/IP port: No such file or directory
  541. 2021-10-18T17:28:17.596105Z 0 [ERROR] Do you already have another mysqld server running on port: 3306 ?
  542. 2021-10-18T17:28:17.596465Z 0 [ERROR] Aborting
  543.  
  544. 2021-10-18T17:28:17.596658Z 0 [Note] Binlog end
  545. 2021-10-18T17:28:17.596870Z 0 [Note] Shutting down plugin 'ngram'
  546. 2021-10-18T17:28:17.597365Z 0 [Note] Shutting down plugin 'partition'
  547. 2021-10-18T17:28:17.597636Z 0 [Note] Shutting down plugin 'BLACKHOLE'
  548. 2021-10-18T17:28:17.597888Z 0 [Note] Shutting down plugin 'ARCHIVE'
  549. 2021-10-18T17:28:17.598192Z 0 [Note] Shutting down plugin 'PERFORMANCE_SCHEMA'
  550. 2021-10-18T17:28:17.598652Z 0 [Note] Shutting down plugin 'MRG_MYISAM'
  551. 2021-10-18T17:28:17.598932Z 0 [Note] Shutting down plugin 'MyISAM'
  552. 2021-10-18T17:28:17.599274Z 0 [Note] Shutting down plugin 'INNODB_SYS_VIRTUAL'
  553. 2021-10-18T17:28:17.599712Z 0 [Note] Shutting down plugin 'INNODB_SYS_DATAFILES'
  554. 2021-10-18T17:28:17.600079Z 0 [Note] Shutting down plugin 'INNODB_SYS_TABLESPACES'
  555. 2021-10-18T17:28:17.600416Z 0 [Note] Shutting down plugin 'INNODB_SYS_FOREIGN_COLS'
  556. 2021-10-18T17:28:17.600808Z 0 [Note] Shutting down plugin 'INNODB_SYS_FOREIGN'
  557. 2021-10-18T17:28:17.601086Z 0 [Note] Shutting down plugin 'INNODB_SYS_FIELDS'
  558. 2021-10-18T17:28:17.601359Z 0 [Note] Shutting down plugin 'INNODB_SYS_COLUMNS'
  559. 2021-10-18T17:28:17.601629Z 0 [Note] Shutting down plugin 'INNODB_SYS_INDEXES'
  560. 2021-10-18T17:28:17.601906Z 0 [Note] Shutting down plugin 'INNODB_SYS_TABLESTATS'
  561. 2021-10-18T17:28:17.602188Z 0 [Note] Shutting down plugin 'INNODB_SYS_TABLES'
  562. 2021-10-18T17:28:17.602456Z 0 [Note] Shutting down plugin 'INNODB_FT_INDEX_TABLE'
  563. 2021-10-18T17:28:17.602738Z 0 [Note] Shutting down plugin 'INNODB_FT_INDEX_CACHE'
  564. 2021-10-18T17:28:17.603018Z 0 [Note] Shutting down plugin 'INNODB_FT_CONFIG'
  565. 2021-10-18T17:28:17.603318Z 0 [Note] Shutting down plugin 'INNODB_FT_BEING_DELETED'
  566. 2021-10-18T17:28:17.603606Z 0 [Note] Shutting down plugin 'INNODB_FT_DELETED'
  567. 2021-10-18T17:28:17.603920Z 0 [Note] Shutting down plugin 'INNODB_FT_DEFAULT_STOPWORD'
  568. 2021-10-18T17:28:17.604257Z 0 [Note] Shutting down plugin 'INNODB_METRICS'
  569. 2021-10-18T17:28:17.604518Z 0 [Note] Shutting down plugin 'INNODB_TEMP_TABLE_INFO'
  570. 2021-10-18T17:28:17.604821Z 0 [Note] Shutting down plugin 'INNODB_BUFFER_POOL_STATS'
  571. 2021-10-18T17:28:17.605112Z 0 [Note] Shutting down plugin 'INNODB_BUFFER_PAGE_LRU'
  572. 2021-10-18T17:28:17.605423Z 0 [Note] Shutting down plugin 'INNODB_BUFFER_PAGE'
  573. 2021-10-18T17:28:17.605714Z 0 [Note] Shutting down plugin 'INNODB_CMP_PER_INDEX_RESET'
  574. 2021-10-18T17:28:17.606010Z 0 [Note] Shutting down plugin 'INNODB_CMP_PER_INDEX'
  575. 2021-10-18T17:28:17.606352Z 0 [Note] Shutting down plugin 'INNODB_CMPMEM_RESET'
  576. 2021-10-18T17:28:17.606746Z 0 [Note] Shutting down plugin 'INNODB_CMPMEM'
  577. 2021-10-18T17:28:17.607005Z 0 [Note] Shutting down plugin 'INNODB_CMP_RESET'
  578. 2021-10-18T17:28:17.607290Z 0 [Note] Shutting down plugin 'INNODB_CMP'
  579. 2021-10-18T17:28:17.607539Z 0 [Note] Shutting down plugin 'INNODB_LOCK_WAITS'
  580. 2021-10-18T17:28:17.607828Z 0 [Note] Shutting down plugin 'INNODB_LOCKS'
  581. 2021-10-18T17:28:17.608083Z 0 [Note] Shutting down plugin 'INNODB_TRX'
  582. 2021-10-18T17:28:17.608355Z 0 [Note] Shutting down plugin 'InnoDB'
  583. 2021-10-18T17:28:17.608612Z 0 [Note] InnoDB: FTS optimize thread exiting.
  584. 2021-10-18T17:28:17.609025Z 0 [Note] InnoDB: Starting shutdown...
  585. 2021-10-18T17:28:17.723466Z 0 [Note] InnoDB: Dumping buffer pool(s) to C:\laragon\data\mysql\ib_buffer_pool
  586. 2021-10-18T17:28:17.724956Z 0 [Note] InnoDB: Buffer pool(s) dump completed at 211018 19:28:17
  587. 2021-10-18T17:28:19.026129Z 0 [Note] InnoDB: Shutdown completed; log sequence number 2746980
  588. 2021-10-18T17:28:19.026829Z 0 [Note] InnoDB: Removed temporary tablespace data file: "ibtmp1"
  589. 2021-10-18T17:28:19.027332Z 0 [Note] Shutting down plugin 'MEMORY'
  590. 2021-10-18T17:28:19.027602Z 0 [Note] Shutting down plugin 'CSV'
  591. 2021-10-18T17:28:19.027842Z 0 [Note] Shutting down plugin 'sha256_password'
  592. 2021-10-18T17:28:19.028115Z 0 [Note] Shutting down plugin 'mysql_native_password'
  593. 2021-10-18T17:28:19.028489Z 0 [Note] Shutting down plugin 'binlog'
  594. 2021-10-18T17:28:19.029743Z 0 [Note] C:\laragon\bin\mysql\mysql-5.7.33-winx64\bin\mysqld: Shutdown complete
  595.  
  596. 2021-10-18T17:28:27.305555Z 0 [Warning] Insecure configuration for --secure-file-priv: Current value does not restrict location of generated files. Consider setting it to a valid, non-empty path.
  597. 2021-10-18T17:28:27.305845Z 0 [Note] C:\laragon\bin\mysql\mysql-5.7.33-winx64\bin\mysqld (mysqld 5.7.33) starting as process 16724 ...
  598. 2021-10-18T17:28:27.317034Z 0 [Note] InnoDB: Mutexes and rw_locks use Windows interlocked functions
  599. 2021-10-18T17:28:27.317483Z 0 [Note] InnoDB: Uses event mutexes
  600. 2021-10-18T17:28:27.317728Z 0 [Note] InnoDB: _mm_lfence() and _mm_sfence() are used for memory barrier
  601. 2021-10-18T17:28:27.318287Z 0 [Note] InnoDB: Compressed tables use zlib 1.2.11
  602. 2021-10-18T17:28:27.318787Z 0 [Note] InnoDB: Number of pools: 1
  603. 2021-10-18T17:28:27.319127Z 0 [Note] InnoDB: Not using CPU crc32 instructions
  604. 2021-10-18T17:28:27.321076Z 0 [Note] InnoDB: Initializing buffer pool, total size = 128M, instances = 1, chunk size = 128M
  605. 2021-10-18T17:28:27.325056Z 0 [Note] InnoDB: Completed initialization of buffer pool
  606. 2021-10-18T17:28:27.356039Z 0 [Note] InnoDB: Highest supported file format is Barracuda.
  607. 2021-10-18T17:28:27.385492Z 0 [Note] InnoDB: Creating shared tablespace for temporary tables
  608. 2021-10-18T17:28:27.386157Z 0 [Note] InnoDB: Setting file '.\ibtmp1' size to 12 MB. Physically writing the file full; Please wait ...
  609. 2021-10-18T17:28:27.393745Z 0 [Note] InnoDB: File '.\ibtmp1' size is now 12 MB.
  610. 2021-10-18T17:28:27.399440Z 0 [Note] InnoDB: 96 redo rollback segment(s) found. 96 redo rollback segment(s) are active.
  611. 2021-10-18T17:28:27.399880Z 0 [Note] InnoDB: 32 non-redo rollback segment(s) are active.
  612. 2021-10-18T17:28:27.400458Z 0 [Note] InnoDB: Waiting for purge to start
  613. 2021-10-18T17:28:27.457140Z 0 [Note] InnoDB: 5.7.33 started; log sequence number 2746980
  614. 2021-10-18T17:28:27.457756Z 0 [Note] InnoDB: Loading buffer pool(s) from C:\laragon\data\mysql\ib_buffer_pool
  615. 2021-10-18T17:28:27.457782Z 0 [Note] Plugin 'FEDERATED' is disabled.
  616. 2021-10-18T17:28:27.463239Z 0 [Note] Found ca.pem, server-cert.pem and server-key.pem in data directory. Trying to enable SSL support using them.
  617. 2021-10-18T17:28:27.463824Z 0 [Note] Skipping generation of SSL certificates as certificate files are present in data directory.
  618. 2021-10-18T17:28:27.465382Z 0 [Warning] CA certificate ca.pem is self signed.
  619. 2021-10-18T17:28:27.465812Z 0 [Note] Skipping generation of RSA key pair as key files are present in data directory.
  620. 2021-10-18T17:28:27.466346Z 0 [Note] InnoDB: Buffer pool(s) load completed at 211018 19:28:27
  621. 2021-10-18T17:28:27.466367Z 0 [Note] Server hostname (bind-address): '*'; port: 3306
  622. 2021-10-18T17:28:27.467065Z 0 [Note] IPv6 is available.
  623. 2021-10-18T17:28:27.467293Z 0 [Note]   - '::' resolves to '::';
  624. 2021-10-18T17:28:27.467589Z 0 [Note] Server socket created on IP: '::'.
  625. 2021-10-18T17:28:27.467865Z 0 [ERROR] Can't start server: Bind on TCP/IP port: No such file or directory
  626. 2021-10-18T17:28:27.468241Z 0 [ERROR] Do you already have another mysqld server running on port: 3306 ?
  627. 2021-10-18T17:28:27.468604Z 0 [ERROR] Aborting
  628.  
  629. 2021-10-18T17:28:27.468796Z 0 [Note] Binlog end
  630. 2021-10-18T17:28:27.469068Z 0 [Note] Shutting down plugin 'ngram'
  631. 2021-10-18T17:28:27.469450Z 0 [Note] Shutting down plugin 'partition'
  632. 2021-10-18T17:28:27.469783Z 0 [Note] Shutting down plugin 'BLACKHOLE'
  633. 2021-10-18T17:28:27.470037Z 0 [Note] Shutting down plugin 'ARCHIVE'
  634. 2021-10-18T17:28:27.470278Z 0 [Note] Shutting down plugin 'PERFORMANCE_SCHEMA'
  635. 2021-10-18T17:28:27.470570Z 0 [Note] Shutting down plugin 'MRG_MYISAM'
  636. 2021-10-18T17:28:27.470824Z 0 [Note] Shutting down plugin 'MyISAM'
  637. 2021-10-18T17:28:27.471075Z 0 [Note] Shutting down plugin 'INNODB_SYS_VIRTUAL'
  638. 2021-10-18T17:28:27.471352Z 0 [Note] Shutting down plugin 'INNODB_SYS_DATAFILES'
  639. 2021-10-18T17:28:27.471634Z 0 [Note] Shutting down plugin 'INNODB_SYS_TABLESPACES'
  640. 2021-10-18T17:28:27.471917Z 0 [Note] Shutting down plugin 'INNODB_SYS_FOREIGN_COLS'
  641. 2021-10-18T17:28:27.472205Z 0 [Note] Shutting down plugin 'INNODB_SYS_FOREIGN'
  642. 2021-10-18T17:28:27.472527Z 0 [Note] Shutting down plugin 'INNODB_SYS_FIELDS'
  643. 2021-10-18T17:28:27.472919Z 0 [Note] Shutting down plugin 'INNODB_SYS_COLUMNS'
  644. 2021-10-18T17:28:27.473330Z 0 [Note] Shutting down plugin 'INNODB_SYS_INDEXES'
  645. 2021-10-18T17:28:27.473661Z 0 [Note] Shutting down plugin 'INNODB_SYS_TABLESTATS'
  646. 2021-10-18T17:28:27.473959Z 0 [Note] Shutting down plugin 'INNODB_SYS_TABLES'
  647. 2021-10-18T17:28:27.474230Z 0 [Note] Shutting down plugin 'INNODB_FT_INDEX_TABLE'
  648. 2021-10-18T17:28:27.474536Z 0 [Note] Shutting down plugin 'INNODB_FT_INDEX_CACHE'
  649. 2021-10-18T17:28:27.474820Z 0 [Note] Shutting down plugin 'INNODB_FT_CONFIG'
  650. 2021-10-18T17:28:27.475145Z 0 [Note] Shutting down plugin 'INNODB_FT_BEING_DELETED'
  651. 2021-10-18T17:28:27.475556Z 0 [Note] Shutting down plugin 'INNODB_FT_DELETED'
  652. 2021-10-18T17:28:27.475827Z 0 [Note] Shutting down plugin 'INNODB_FT_DEFAULT_STOPWORD'
  653. 2021-10-18T17:28:27.476147Z 0 [Note] Shutting down plugin 'INNODB_METRICS'
  654. 2021-10-18T17:28:27.476408Z 0 [Note] Shutting down plugin 'INNODB_TEMP_TABLE_INFO'
  655. 2021-10-18T17:28:27.476736Z 0 [Note] Shutting down plugin 'INNODB_BUFFER_POOL_STATS'
  656. 2021-10-18T17:28:27.477179Z 0 [Note] Shutting down plugin 'INNODB_BUFFER_PAGE_LRU'
  657. 2021-10-18T17:28:27.477587Z 0 [Note] Shutting down plugin 'INNODB_BUFFER_PAGE'
  658. 2021-10-18T17:28:27.477863Z 0 [Note] Shutting down plugin 'INNODB_CMP_PER_INDEX_RESET'
  659. 2021-10-18T17:28:27.478159Z 0 [Note] Shutting down plugin 'INNODB_CMP_PER_INDEX'
  660. 2021-10-18T17:28:27.478438Z 0 [Note] Shutting down plugin 'INNODB_CMPMEM_RESET'
  661. 2021-10-18T17:28:27.478712Z 0 [Note] Shutting down plugin 'INNODB_CMPMEM'
  662. 2021-10-18T17:28:27.478971Z 0 [Note] Shutting down plugin 'INNODB_CMP_RESET'
  663. 2021-10-18T17:28:27.479236Z 0 [Note] Shutting down plugin 'INNODB_CMP'
  664. 2021-10-18T17:28:27.479515Z 0 [Note] Shutting down plugin 'INNODB_LOCK_WAITS'
  665. 2021-10-18T17:28:27.479787Z 0 [Note] Shutting down plugin 'INNODB_LOCKS'
  666. 2021-10-18T17:28:27.480093Z 0 [Note] Shutting down plugin 'INNODB_TRX'
  667. 2021-10-18T17:28:27.480349Z 0 [Note] Shutting down plugin 'InnoDB'
  668. 2021-10-18T17:28:27.480624Z 0 [Note] InnoDB: FTS optimize thread exiting.
  669. 2021-10-18T17:28:27.480940Z 0 [Note] InnoDB: Starting shutdown...
  670. 2021-10-18T17:28:27.596445Z 0 [Note] InnoDB: Dumping buffer pool(s) to C:\laragon\data\mysql\ib_buffer_pool
  671. 2021-10-18T17:28:27.597645Z 0 [Note] InnoDB: Buffer pool(s) dump completed at 211018 19:28:27
  672. 2021-10-18T17:28:28.898884Z 0 [Note] InnoDB: Shutdown completed; log sequence number 2746999
  673. 2021-10-18T17:28:28.899573Z 0 [Note] InnoDB: Removed temporary tablespace data file: "ibtmp1"
  674. 2021-10-18T17:28:28.899959Z 0 [Note] Shutting down plugin 'MEMORY'
  675. 2021-10-18T17:28:28.900315Z 0 [Note] Shutting down plugin 'CSV'
  676. 2021-10-18T17:28:28.900565Z 0 [Note] Shutting down plugin 'sha256_password'
  677. 2021-10-18T17:28:28.900832Z 0 [Note] Shutting down plugin 'mysql_native_password'
  678. 2021-10-18T17:28:28.901245Z 0 [Note] Shutting down plugin 'binlog'
  679. 2021-10-18T17:28:28.902523Z 0 [Note] C:\laragon\bin\mysql\mysql-5.7.33-winx64\bin\mysqld: Shutdown complete
  680.  
  681. 2021-10-18T17:33:39.961776Z 0 [Warning] Insecure configuration for --secure-file-priv: Current value does not restrict location of generated files. Consider setting it to a valid, non-empty path.
  682. 2021-10-18T17:33:39.962074Z 0 [Note] C:\laragon\bin\mysql\mysql-5.7.33-winx64\bin\mysqld (mysqld 5.7.33) starting as process 2588 ...
  683. 2021-10-18T17:33:39.972923Z 0 [Note] InnoDB: Mutexes and rw_locks use Windows interlocked functions
  684. 2021-10-18T17:33:39.973320Z 0 [Note] InnoDB: Uses event mutexes
  685. 2021-10-18T17:33:39.973566Z 0 [Note] InnoDB: _mm_lfence() and _mm_sfence() are used for memory barrier
  686. 2021-10-18T17:33:39.973916Z 0 [Note] InnoDB: Compressed tables use zlib 1.2.11
  687. 2021-10-18T17:33:39.974386Z 0 [Note] InnoDB: Number of pools: 1
  688. 2021-10-18T17:33:39.974704Z 0 [Note] InnoDB: Not using CPU crc32 instructions
  689. 2021-10-18T17:33:39.976574Z 0 [Note] InnoDB: Initializing buffer pool, total size = 128M, instances = 1, chunk size = 128M
  690. 2021-10-18T17:33:39.980565Z 0 [Note] InnoDB: Completed initialization of buffer pool
  691. 2021-10-18T17:33:40.009965Z 0 [Note] InnoDB: Highest supported file format is Barracuda.
  692. 2021-10-18T17:33:40.039888Z 0 [Note] InnoDB: Creating shared tablespace for temporary tables
  693. 2021-10-18T17:33:40.040473Z 0 [Note] InnoDB: Setting file '.\ibtmp1' size to 12 MB. Physically writing the file full; Please wait ...
  694. 2021-10-18T17:33:40.047442Z 0 [Note] InnoDB: File '.\ibtmp1' size is now 12 MB.
  695. 2021-10-18T17:33:40.052277Z 0 [Note] InnoDB: 96 redo rollback segment(s) found. 96 redo rollback segment(s) are active.
  696. 2021-10-18T17:33:40.052725Z 0 [Note] InnoDB: 32 non-redo rollback segment(s) are active.
  697. 2021-10-18T17:33:40.053501Z 0 [Note] InnoDB: Waiting for purge to start
  698. 2021-10-18T17:33:40.112544Z 0 [Note] InnoDB: 5.7.33 started; log sequence number 2746999
  699. 2021-10-18T17:33:40.113221Z 0 [Note] Plugin 'FEDERATED' is disabled.
  700. 2021-10-18T17:33:40.113224Z 0 [Note] InnoDB: Loading buffer pool(s) from C:\laragon\data\mysql\ib_buffer_pool
  701. 2021-10-18T17:33:40.120078Z 0 [Note] Found ca.pem, server-cert.pem and server-key.pem in data directory. Trying to enable SSL support using them.
  702. 2021-10-18T17:33:40.120610Z 0 [Note] Skipping generation of SSL certificates as certificate files are present in data directory.
  703. 2021-10-18T17:33:40.122011Z 0 [Warning] CA certificate ca.pem is self signed.
  704. 2021-10-18T17:33:40.122439Z 0 [Note] Skipping generation of RSA key pair as key files are present in data directory.
  705. 2021-10-18T17:33:40.123002Z 0 [Note] Server hostname (bind-address): '*'; port: 3306
  706. 2021-10-18T17:33:40.123465Z 0 [Note] IPv6 is available.
  707. 2021-10-18T17:33:40.123697Z 0 [Note]   - '::' resolves to '::';
  708. 2021-10-18T17:33:40.124006Z 0 [Note] Server socket created on IP: '::'.
  709. 2021-10-18T17:33:40.124200Z 0 [Note] InnoDB: Buffer pool(s) load completed at 211018 19:33:40
  710. 2021-10-18T17:33:40.124289Z 0 [ERROR] Can't start server: Bind on TCP/IP port: No such file or directory
  711. 2021-10-18T17:33:40.125006Z 0 [ERROR] Do you already have another mysqld server running on port: 3306 ?
  712. 2021-10-18T17:33:40.125366Z 0 [ERROR] Aborting
  713.  
  714. 2021-10-18T17:33:40.125558Z 0 [Note] Binlog end
  715. 2021-10-18T17:33:40.125767Z 0 [Note] Shutting down plugin 'ngram'
  716. 2021-10-18T17:33:40.126033Z 0 [Note] Shutting down plugin 'partition'
  717. 2021-10-18T17:33:40.126282Z 0 [Note] Shutting down plugin 'BLACKHOLE'
  718. 2021-10-18T17:33:40.126550Z 0 [Note] Shutting down plugin 'ARCHIVE'
  719. 2021-10-18T17:33:40.126794Z 0 [Note] Shutting down plugin 'PERFORMANCE_SCHEMA'
  720. 2021-10-18T17:33:40.127081Z 0 [Note] Shutting down plugin 'MRG_MYISAM'
  721. 2021-10-18T17:33:40.127334Z 0 [Note] Shutting down plugin 'MyISAM'
  722. 2021-10-18T17:33:40.127623Z 0 [Note] Shutting down plugin 'INNODB_SYS_VIRTUAL'
  723. 2021-10-18T17:33:40.127936Z 0 [Note] Shutting down plugin 'INNODB_SYS_DATAFILES'
  724. 2021-10-18T17:33:40.128218Z 0 [Note] Shutting down plugin 'INNODB_SYS_TABLESPACES'
  725. 2021-10-18T17:33:40.128522Z 0 [Note] Shutting down plugin 'INNODB_SYS_FOREIGN_COLS'
  726. 2021-10-18T17:33:40.128818Z 0 [Note] Shutting down plugin 'INNODB_SYS_FOREIGN'
  727. 2021-10-18T17:33:40.129111Z 0 [Note] Shutting down plugin 'INNODB_SYS_FIELDS'
  728. 2021-10-18T17:33:40.129383Z 0 [Note] Shutting down plugin 'INNODB_SYS_COLUMNS'
  729. 2021-10-18T17:33:40.129653Z 0 [Note] Shutting down plugin 'INNODB_SYS_INDEXES'
  730. 2021-10-18T17:33:40.129984Z 0 [Note] Shutting down plugin 'INNODB_SYS_TABLESTATS'
  731. 2021-10-18T17:33:40.130264Z 0 [Note] Shutting down plugin 'INNODB_SYS_TABLES'
  732. 2021-10-18T17:33:40.130556Z 0 [Note] Shutting down plugin 'INNODB_FT_INDEX_TABLE'
  733. 2021-10-18T17:33:40.130836Z 0 [Note] Shutting down plugin 'INNODB_FT_INDEX_CACHE'
  734. 2021-10-18T17:33:40.131134Z 0 [Note] Shutting down plugin 'INNODB_FT_CONFIG'
  735. 2021-10-18T17:33:40.131415Z 0 [Note] Shutting down plugin 'INNODB_FT_BEING_DELETED'
  736. 2021-10-18T17:33:40.131701Z 0 [Note] Shutting down plugin 'INNODB_FT_DELETED'
  737. 2021-10-18T17:33:40.131992Z 0 [Note] Shutting down plugin 'INNODB_FT_DEFAULT_STOPWORD'
  738. 2021-10-18T17:33:40.132285Z 0 [Note] Shutting down plugin 'INNODB_METRICS'
  739. 2021-10-18T17:33:40.132564Z 0 [Note] Shutting down plugin 'INNODB_TEMP_TABLE_INFO'
  740. 2021-10-18T17:33:40.133016Z 0 [Note] Shutting down plugin 'INNODB_BUFFER_POOL_STATS'
  741. 2021-10-18T17:33:40.133307Z 0 [Note] Shutting down plugin 'INNODB_BUFFER_PAGE_LRU'
  742. 2021-10-18T17:33:40.133624Z 0 [Note] Shutting down plugin 'INNODB_BUFFER_PAGE'
  743. 2021-10-18T17:33:40.133909Z 0 [Note] Shutting down plugin 'INNODB_CMP_PER_INDEX_RESET'
  744. 2021-10-18T17:33:40.134203Z 0 [Note] Shutting down plugin 'INNODB_CMP_PER_INDEX'
  745. 2021-10-18T17:33:40.134482Z 0 [Note] Shutting down plugin 'INNODB_CMPMEM_RESET'
  746. 2021-10-18T17:33:40.134754Z 0 [Note] Shutting down plugin 'INNODB_CMPMEM'
  747. 2021-10-18T17:33:40.135107Z 0 [Note] Shutting down plugin 'INNODB_CMP_RESET'
  748. 2021-10-18T17:33:40.135610Z 0 [Note] Shutting down plugin 'INNODB_CMP'
  749. 2021-10-18T17:33:40.135874Z 0 [Note] Shutting down plugin 'INNODB_LOCK_WAITS'
  750. 2021-10-18T17:33:40.136157Z 0 [Note] Shutting down plugin 'INNODB_LOCKS'
  751. 2021-10-18T17:33:40.136437Z 0 [Note] Shutting down plugin 'INNODB_TRX'
  752. 2021-10-18T17:33:40.136685Z 0 [Note] Shutting down plugin 'InnoDB'
  753. 2021-10-18T17:33:40.136940Z 0 [Note] InnoDB: FTS optimize thread exiting.
  754. 2021-10-18T17:33:40.137242Z 0 [Note] InnoDB: Starting shutdown...
  755. 2021-10-18T17:33:40.250294Z 0 [Note] InnoDB: Dumping buffer pool(s) to C:\laragon\data\mysql\ib_buffer_pool
  756. 2021-10-18T17:33:40.251534Z 0 [Note] InnoDB: Buffer pool(s) dump completed at 211018 19:33:40
  757. 2021-10-18T17:33:41.441162Z 0 [Note] InnoDB: Shutdown completed; log sequence number 2747018
  758. 2021-10-18T17:33:41.441741Z 0 [Note] InnoDB: Removed temporary tablespace data file: "ibtmp1"
  759. 2021-10-18T17:33:41.442108Z 0 [Note] Shutting down plugin 'MEMORY'
  760. 2021-10-18T17:33:41.442483Z 0 [Note] Shutting down plugin 'CSV'
  761. 2021-10-18T17:33:41.442730Z 0 [Note] Shutting down plugin 'sha256_password'
  762. 2021-10-18T17:33:41.442999Z 0 [Note] Shutting down plugin 'mysql_native_password'
  763. 2021-10-18T17:33:41.443378Z 0 [Note] Shutting down plugin 'binlog'
  764. 2021-10-18T17:33:41.444642Z 0 [Note] C:\laragon\bin\mysql\mysql-5.7.33-winx64\bin\mysqld: Shutdown complete
  765.  
  766. 2021-10-18T17:33:49.697785Z 0 [Warning] Insecure configuration for --secure-file-priv: Current value does not restrict location of generated files. Consider setting it to a valid, non-empty path.
  767. 2021-10-18T17:33:49.698071Z 0 [Note] C:\laragon\bin\mysql\mysql-5.7.33-winx64\bin\mysqld (mysqld 5.7.33) starting as process 14664 ...
  768. 2021-10-18T17:33:49.708229Z 0 [Note] InnoDB: Mutexes and rw_locks use Windows interlocked functions
  769. 2021-10-18T17:33:49.708628Z 0 [Note] InnoDB: Uses event mutexes
  770. 2021-10-18T17:33:49.708877Z 0 [Note] InnoDB: _mm_lfence() and _mm_sfence() are used for memory barrier
  771. 2021-10-18T17:33:49.709221Z 0 [Note] InnoDB: Compressed tables use zlib 1.2.11
  772. 2021-10-18T17:33:49.709705Z 0 [Note] InnoDB: Number of pools: 1
  773. 2021-10-18T17:33:49.710085Z 0 [Note] InnoDB: Not using CPU crc32 instructions
  774. 2021-10-18T17:33:49.711914Z 0 [Note] InnoDB: Initializing buffer pool, total size = 128M, instances = 1, chunk size = 128M
  775. 2021-10-18T17:33:49.716053Z 0 [Note] InnoDB: Completed initialization of buffer pool
  776. 2021-10-18T17:33:49.742795Z 0 [Note] InnoDB: Highest supported file format is Barracuda.
  777. 2021-10-18T17:33:49.774075Z 0 [Note] InnoDB: Creating shared tablespace for temporary tables
  778. 2021-10-18T17:33:49.774816Z 0 [Note] InnoDB: Setting file '.\ibtmp1' size to 12 MB. Physically writing the file full; Please wait ...
  779. 2021-10-18T17:33:49.781466Z 0 [Note] InnoDB: File '.\ibtmp1' size is now 12 MB.
  780. 2021-10-18T17:33:49.787127Z 0 [Note] InnoDB: 96 redo rollback segment(s) found. 96 redo rollback segment(s) are active.
  781. 2021-10-18T17:33:49.787582Z 0 [Note] InnoDB: 32 non-redo rollback segment(s) are active.
  782. 2021-10-18T17:33:49.788156Z 0 [Note] InnoDB: Waiting for purge to start
  783. 2021-10-18T17:33:49.845054Z 0 [Note] InnoDB: 5.7.33 started; log sequence number 2747018
  784. 2021-10-18T17:33:49.845819Z 0 [Note] InnoDB: Loading buffer pool(s) from C:\laragon\data\mysql\ib_buffer_pool
  785. 2021-10-18T17:33:49.845821Z 0 [Note] Plugin 'FEDERATED' is disabled.
  786. 2021-10-18T17:33:49.851952Z 0 [Note] Found ca.pem, server-cert.pem and server-key.pem in data directory. Trying to enable SSL support using them.
  787. 2021-10-18T17:33:49.852456Z 0 [Note] Skipping generation of SSL certificates as certificate files are present in data directory.
  788. 2021-10-18T17:33:49.853739Z 0 [Warning] CA certificate ca.pem is self signed.
  789. 2021-10-18T17:33:49.854125Z 0 [Note] Skipping generation of RSA key pair as key files are present in data directory.
  790. 2021-10-18T17:33:49.854681Z 0 [Note] Server hostname (bind-address): '*'; port: 3306
  791. 2021-10-18T17:33:49.855220Z 0 [Note] IPv6 is available.
  792. 2021-10-18T17:33:49.855292Z 0 [Note] InnoDB: Buffer pool(s) load completed at 211018 19:33:49
  793. 2021-10-18T17:33:49.855478Z 0 [Note]   - '::' resolves to '::';
  794. 2021-10-18T17:33:49.855979Z 0 [Note] Server socket created on IP: '::'.
  795. 2021-10-18T17:33:49.856250Z 0 [ERROR] Can't start server: Bind on TCP/IP port: No such file or directory
  796. 2021-10-18T17:33:49.856598Z 0 [ERROR] Do you already have another mysqld server running on port: 3306 ?
  797. 2021-10-18T17:33:49.856977Z 0 [ERROR] Aborting
  798.  
  799. 2021-10-18T17:33:49.857172Z 0 [Note] Binlog end
  800. 2021-10-18T17:33:49.857446Z 0 [Note] Shutting down plugin 'ngram'
  801. 2021-10-18T17:33:49.857686Z 0 [Note] Shutting down plugin 'partition'
  802. 2021-10-18T17:33:49.857934Z 0 [Note] Shutting down plugin 'BLACKHOLE'
  803. 2021-10-18T17:33:49.858177Z 0 [Note] Shutting down plugin 'ARCHIVE'
  804. 2021-10-18T17:33:49.858430Z 0 [Note] Shutting down plugin 'PERFORMANCE_SCHEMA'
  805. 2021-10-18T17:33:49.858723Z 0 [Note] Shutting down plugin 'MRG_MYISAM'
  806. 2021-10-18T17:33:49.858976Z 0 [Note] Shutting down plugin 'MyISAM'
  807. 2021-10-18T17:33:49.859218Z 0 [Note] Shutting down plugin 'INNODB_SYS_VIRTUAL'
  808. 2021-10-18T17:33:49.859496Z 0 [Note] Shutting down plugin 'INNODB_SYS_DATAFILES'
  809. 2021-10-18T17:33:49.859777Z 0 [Note] Shutting down plugin 'INNODB_SYS_TABLESPACES'
  810. 2021-10-18T17:33:49.860058Z 0 [Note] Shutting down plugin 'INNODB_SYS_FOREIGN_COLS'
  811. 2021-10-18T17:33:49.860514Z 0 [Note] Shutting down plugin 'INNODB_SYS_FOREIGN'
  812. 2021-10-18T17:33:49.860922Z 0 [Note] Shutting down plugin 'INNODB_SYS_FIELDS'
  813. 2021-10-18T17:33:49.861188Z 0 [Note] Shutting down plugin 'INNODB_SYS_COLUMNS'
  814. 2021-10-18T17:33:49.861457Z 0 [Note] Shutting down plugin 'INNODB_SYS_INDEXES'
  815. 2021-10-18T17:33:49.861722Z 0 [Note] Shutting down plugin 'INNODB_SYS_TABLESTATS'
  816. 2021-10-18T17:33:49.861999Z 0 [Note] Shutting down plugin 'INNODB_SYS_TABLES'
  817. 2021-10-18T17:33:49.862261Z 0 [Note] Shutting down plugin 'INNODB_FT_INDEX_TABLE'
  818. 2021-10-18T17:33:49.862538Z 0 [Note] Shutting down plugin 'INNODB_FT_INDEX_CACHE'
  819. 2021-10-18T17:33:49.862833Z 0 [Note] Shutting down plugin 'INNODB_FT_CONFIG'
  820. 2021-10-18T17:33:49.863229Z 0 [Note] Shutting down plugin 'INNODB_FT_BEING_DELETED'
  821. 2021-10-18T17:33:49.863515Z 0 [Note] Shutting down plugin 'INNODB_FT_DELETED'
  822. 2021-10-18T17:33:49.863779Z 0 [Note] Shutting down plugin 'INNODB_FT_DEFAULT_STOPWORD'
  823. 2021-10-18T17:33:49.864103Z 0 [Note] Shutting down plugin 'INNODB_METRICS'
  824. 2021-10-18T17:33:49.864423Z 0 [Note] Shutting down plugin 'INNODB_TEMP_TABLE_INFO'
  825. 2021-10-18T17:33:49.864848Z 0 [Note] Shutting down plugin 'INNODB_BUFFER_POOL_STATS'
  826. 2021-10-18T17:33:49.865145Z 0 [Note] Shutting down plugin 'INNODB_BUFFER_PAGE_LRU'
  827. 2021-10-18T17:33:49.865451Z 0 [Note] Shutting down plugin 'INNODB_BUFFER_PAGE'
  828. 2021-10-18T17:33:49.865765Z 0 [Note] Shutting down plugin 'INNODB_CMP_PER_INDEX_RESET'
  829. 2021-10-18T17:33:49.866058Z 0 [Note] Shutting down plugin 'INNODB_CMP_PER_INDEX'
  830. 2021-10-18T17:33:49.866431Z 0 [Note] Shutting down plugin 'INNODB_CMPMEM_RESET'
  831. 2021-10-18T17:33:49.866723Z 0 [Note] Shutting down plugin 'INNODB_CMPMEM'
  832. 2021-10-18T17:33:49.867038Z 0 [Note] Shutting down plugin 'INNODB_CMP_RESET'
  833. 2021-10-18T17:33:49.867507Z 0 [Note] Shutting down plugin 'INNODB_CMP'
  834. 2021-10-18T17:33:49.868001Z 0 [Note] Shutting down plugin 'INNODB_LOCK_WAITS'
  835. 2021-10-18T17:33:49.868347Z 0 [Note] Shutting down plugin 'INNODB_LOCKS'
  836. 2021-10-18T17:33:49.868605Z 0 [Note] Shutting down plugin 'INNODB_TRX'
  837. 2021-10-18T17:33:49.868907Z 0 [Note] Shutting down plugin 'InnoDB'
  838. 2021-10-18T17:33:49.869295Z 0 [Note] InnoDB: FTS optimize thread exiting.
  839. 2021-10-18T17:33:49.869620Z 0 [Note] InnoDB: Starting shutdown...
  840. 2021-10-18T17:33:49.984472Z 0 [Note] InnoDB: Dumping buffer pool(s) to C:\laragon\data\mysql\ib_buffer_pool
  841. 2021-10-18T17:33:49.985927Z 0 [Note] InnoDB: Buffer pool(s) dump completed at 211018 19:33:49
  842. 2021-10-18T17:33:51.289632Z 0 [Note] InnoDB: Shutdown completed; log sequence number 2747037
  843. 2021-10-18T17:33:51.290258Z 0 [Note] InnoDB: Removed temporary tablespace data file: "ibtmp1"
  844. 2021-10-18T17:33:51.290607Z 0 [Note] Shutting down plugin 'MEMORY'
  845. 2021-10-18T17:33:51.290858Z 0 [Note] Shutting down plugin 'CSV'
  846. 2021-10-18T17:33:51.291091Z 0 [Note] Shutting down plugin 'sha256_password'
  847. 2021-10-18T17:33:51.291361Z 0 [Note] Shutting down plugin 'mysql_native_password'
  848. 2021-10-18T17:33:51.291730Z 0 [Note] Shutting down plugin 'binlog'
  849. 2021-10-18T17:33:51.293000Z 0 [Note] C:\laragon\bin\mysql\mysql-5.7.33-winx64\bin\mysqld: Shutdown complete
  850.  
  851.  
RAW Paste Data